Wetterdaten: Freitag, 15.02.2019
Datum Zeit Temp. Aussen Temp. o. S. +5cm Feuchte Auss Luftdruck Regen Sonnenschein Regendauer Solar Windben Empfang
15.02.2019 00:00 5,6 C 4,4 C 3,3 C 70 % 1031,4 hPa 0,0 l/m 0 min 0 min 0 W/m 9,7 km/h (2 Bft) 93,48 %
15.02.2019 00:02 5,6 C 4,4 C 3,3 C 70 % 1031,4 hPa 0,0 l/m 0 min 0 min 0 W/m 6,4 km/h (2 Bft) 94,12 %
15.02.2019 00:04 5,5 C 4,4 C 3,3 C 70 % 1031,4 hPa 0,0 l/m 0 min 0 min 0 W/m 6,4 km/h (2 Bft) 91,49 %
15.02.2019 00:07 5,4 C 4,4 C 3,3 C 70 % 1031,4 hPa 0,0 l/m 0 min 0 min 0 W/m 9,7 km/h (2 Bft) 94,29 %
15.02.2019 00:08 5,4 C 4,4 C 3,3 C 70 % 1031,4 hPa 0,0 l/m 0 min 0 min 0 W/m 6,4 km/h (2 Bft) 91,67 %
15.02.2019 00:10 5,4 C 4,4 C 3,3 C 70 % 1031,4 hPa 0,0 l/m 0 min 0 min 0 W/m 9,7 km/h (2 Bft) 93,48 %
15.02.2019 00:12 5,3 C 4,4 C 3,3 C 70 % 1031,4 hPa 0,0 l/m 0 min 0 min 0 W/m 9,7 km/h (2 Bft) 93,62 %
15.02.2019 00:14 5,3 C 4,4 C 3,3 C 71 % 1031,4 hPa 0,0 l/m 0 min 0 min 0 W/m 9,7 km/h (2 Bft) 93,62 %
15.02.2019 00:16 5,3 C 4,4 C 3,3 C 71 % 1031,4 hPa 0,0 l/m 0 min 0 min 0 W/m 9,7 km/h (2 Bft) 96,15 %
15.02.2019 00:18 5,3 C 4,4 C 3,3 C 71 % 1031,4 hPa 0,0 l/m 0 min 0 min 0 W/m 9,7 km/h (2 Bft) 95,24 %
15.02.2019 00:20 5,3 C 4,4 C 3,3 C 71 % 1031,4 hPa 0,0 l/m 0 min 0 min 0 W/m 9,7 km/h (2 Bft) 95,74 %
15.02.2019 00:22 5,3 C 4,4 C 3,3 C 71 % 1031,4 hPa 0,0 l/m 0 min 0 min 0 W/m 12,9 km/h (3 Bft) 93,48 %
15.02.2019 00:24 5,3 C 4,4 C 3,3 C 71 % 1031,4 hPa 0,0 l/m 0 min 0 min 0 W/m 12,9 km/h (3 Bft) 95,74 %
15.02.2019 00:26 5,2 C 4,4 C 3,3 C 71 % 1031,4 hPa 0,0 l/m 0 min 0 min 0 W/m 6,4 km/h (2 Bft) 95,74 %
15.02.2019 00:28 5,2 C 4,4 C 3,3 C 71 % 1031,3 hPa 0,0 l/m 0 min 0 min 0 W/m 9,7 km/h (2 Bft) 93,62 %
15.02.2019 00:30 5,2 C 4,4 C 3,3 C 71 % 1031,3 hPa 0,0 l/m 0 min 0 min 0 W/m 9,7 km/h (2 Bft) 95,74 %
15.02.2019 00:32 5,2 C 4,4 C 3,3 C 71 % 1031,4 hPa 0,0 l/m 0 min 0 min 0 W/m 16,1 km/h (3 Bft) 97,87 %
15.02.2019 00:34 5,2 C 4,4 C 3,3 C 71 % 1031,5 hPa 0,0 l/m 0 min 0 min 0 W/m 9,7 km/h (2 Bft) 95,65 %
15.02.2019 00:36 5,2 C 4,4 C 3,3 C 71 % 1031,5 hPa 0,0 l/m 0 min 0 min 0 W/m 9,7 km/h (2 Bft) 96,23 %
15.02.2019 00:38 5,2 C 5,0 C 3,9 C 71 % 1031,4 hPa 0,0 l/m 0 min 0 min 0 W/m 16,1 km/h (3 Bft) 97,56 %
15.02.2019 00:40 5,2 C 5,0 C 3,9 C 71 % 1031,5 hPa 0,0 l/m 0 min 0 min 0 W/m 12,9 km/h (3 Bft) 97,87 %
15.02.2019 00:42 5,2 C 5,0 C 3,9 C 71 % 1031,5 hPa 0,0 l/m 0 min 0 min 0 W/m 16,1 km/h (3 Bft) 97,87 %
15.02.2019 00:44 5,2 C 4,4 C 3,9 C 71 % 1031,5 hPa 0,0 l/m 0 min 0 min 0 W/m 16,1 km/h (3 Bft) 93,62 %
15.02.2019 00:46 5,2 C 4,4 C 3,9 C 71 % 1031,5 hPa 0,0 l/m 0 min 0 min 0 W/m 9,7 km/h (2 Bft) 95,65 %
15.02.2019 00:48 5,2 C 4,4 C 3,9 C 71 % 1031,5 hPa 0,0 l/m 0 min 0 min 0 W/m 22,5 km/h (4 Bft) 97,87 %
15.02.2019 00:50 5,2 C 4,4 C 3,9 C 71 % 1031,5 hPa 0,0 l/m 0 min 0 min 0 W/m 12,9 km/h (3 Bft) 100,00 %
15.02.2019 00:52 5,2 C 4,4 C 3,9 C 71 % 1031,5 hPa 0,0 l/m 0 min 0 min 0 W/m 12,9 km/h (3 Bft) 97,87 %
15.02.2019 00:54 5,2 C 4,4 C 3,3 C 71 % 1031,5 hPa 0,0 l/m 0 min 0 min 0 W/m 12,9 km/h (3 Bft) 95,74 %
15.02.2019 00:56 5,2 C 4,4 C 3,3 C 70 % 1031,5 hPa 0,0 l/m 0 min 0 min 0 W/m 12,9 km/h (3 Bft) 100,00 %
15.02.2019 00:58 5,2 C 4,4 C 3,3 C 71 % 1031,5 hPa 0,0 l/m 0 min 0 min 0 W/m 9,7 km/h (2 Bft) 97,83 %
15.02.2019 01:00 5,2 C 4,4 C 3,3 C 70 % 1031,6 hPa 0,0 l/m 0 min 0 min 0 W/m 12,9 km/h (3 Bft) 100,00 %
15.02.2019 01:02 5,2 C 4,4 C 3,3 C 71 % 1031,5 hPa 0,0 l/m 0 min 0 min 0 W/m 9,7 km/h (2 Bft) 97,87 %
15.02.2019 01:04 5,2 C 4,4 C 3,3 C 70 % 1031,5 hPa 0,0 l/m 0 min 0 min 0 W/m 16,1 km/h (3 Bft) 100,00 %
15.02.2019 01:06 5,1 C 4,4 C 3,3 C 70 % 1031,5 hPa 0,0 l/m 0 min 0 min 0 W/m 9,7 km/h (2 Bft) 100,00 %
15.02.2019 01:08 5,1 C 4,4 C 3,3 C 71 % 1031,5 hPa 0,0 l/m 0 min 0 min 0 W/m 6,4 km/h (2 Bft) 100,00 %
15.02.2019 01:10 5,1 C 4,4 C 3,3 C 71 % 1031,5 hPa 0,0 l/m 0 min 0 min 0 W/m 9,7 km/h (2 Bft) 100,00 %
15.02.2019 01:12 5,1 C 4,4 C 3,3 C 71 % 1031,5 hPa 0,0 l/m 0 min 0 min 0 W/m 9,7 km/h (2 Bft) 97,87 %
15.02.2019 01:14 5,1 C 4,4 C 3,3 C 71 % 1031,5 hPa 0,0 l/m 0 min 0 min 0 W/m 9,7 km/h (2 Bft) 100,00 %
15.02.2019 01:16 5,1 C 4,4 C 3,3 C 70 % 1031,6 hPa 0,0 l/m 0 min 0 min 0 W/m 12,9 km/h (3 Bft) 100,00 %
15.02.2019 01:18 5,1 C 4,4 C 3,3 C 70 % 1031,6 hPa 0,0 l/m 0 min 0 min 0 W/m 12,9 km/h (3 Bft) 97,87 %
15.02.2019 01:20 5,1 C 4,4 C 3,3 C 71 % 1031,6 hPa 0,0 l/m 0 min 0 min 0 W/m 9,7 km/h (2 Bft) 100,00 %
15.02.2019 01:22 5,1 C 4,4 C 3,3 C 71 % 1031,6 hPa 0,0 l/m 0 min 0 min 0 W/m 6,4 km/h (2 Bft) 100,00 %
15.02.2019 01:24 5,0 C 4,4 C 3,3 C 71 % 1031,6 hPa 0,0 l/m 0 min 0 min 0 W/m 9,7 km/h (2 Bft) 100,00 %
15.02.2019 01:26 5,0 C 4,4 C 3,3 C 71 % 1031,6 hPa 0,0 l/m 0 min 0 min 0 W/m 9,7 km/h (2 Bft) 97,87 %
15.02.2019 01:28 5,0 C 4,4 C 3,3 C 71 % 1031,6 hPa 0,0 l/m 0 min 0 min 0 W/m 6,4 km/h (2 Bft) 100,00 %
15.02.2019 01:30 5,0 C 4,4 C 3,3 C 71 % 1031,6 hPa 0,0 l/m 0 min 0 min 0 W/m 16,1 km/h (3 Bft) 100,00 %
15.02.2019 01:32 5,0 C 4,4 C 3,3 C 71 % 1031,5 hPa 0,0 l/m 0 min 0 min 0 W/m 16,1 km/h (3 Bft) 100,00 %
15.02.2019 01:34 4,9 C 4,4 C 3,3 C 71 % 1031,5 hPa 0,0 l/m 0 min 0 min 0 W/m 9,7 km/h (2 Bft) 100,00 %
15.02.2019 01:36 4,9 C 3,9 C 3,3 C 71 % 1031,5 hPa 0,0 l/m 0 min 0 min 0 W/m 9,7 km/h (2 Bft) 100,00 %
15.02.2019 01:38 4,9 C 4,4 C 3,3 C 71 % 1031,5 hPa 0,0 l/m 0 min 0 min 0 W/m 9,7 km/h (2 Bft) 100,00 %
15.02.2019 01:40 4,9 C 4,4 C 3,3 C 71 % 1031,5 hPa 0,0 l/m 0 min 0 min 0 W/m 9,7 km/h (2 Bft) 100,00 %
15.02.2019 01:42 4,9 C 3,9 C 2,8 C 71 % 1031,5 hPa 0,0 l/m 0 min 0 min 0 W/m 6,4 km/h (2 Bft) 100,00 %
15.02.2019 01:44 4,9 C 3,9 C 2,8 C 71 % 1031,4 hPa 0,0 l/m 0 min 0 min 0 W/m 9,7 km/h (2 Bft) 100,00 %
15.02.2019 01:46 4,9 C 3,9 C 2,8 C 71 % 1031,5 hPa 0,0 l/m 0 min 0 min 0 W/m 9,7 km/h (2 Bft) 95,74 %
15.02.2019 01:48 4,8 C 3,9 C 2,8 C 71 % 1031,5 hPa 0,0 l/m 0 min 0 min 0 W/m 9,7 km/h (2 Bft) 95,74 %
15.02.2019 01:50 4,8 C 3,9 C 2,8 C 71 % 1031,4 hPa 0,0 l/m 0 min 0 min 0 W/m 6,4 km/h (2 Bft) 100,00 %
15.02.2019 01:52 4,8 C 3,9 C 2,8 C 71 % 1031,4 hPa 0,0 l/m 0 min 0 min 0 W/m 6,4 km/h (2 Bft) 97,87 %
15.02.2019 01:54 4,8 C 3,9 C 2,8 C 71 % 1031,4 hPa 0,0 l/m 0 min 0 min 0 W/m 9,7 km/h (2 Bft) 97,87 %
15.02.2019 01:56 4,8 C 3,9 C 2,8 C 71 % 1031,5 hPa 0,0 l/m 0 min 0 min 0 W/m 9,7 km/h (2 Bft) 97,83 %
15.02.2019 01:58 4,7 C 3,9 C 2,8 C 71 % 1031,4 hPa 0,0 l/m 0 min 0 min 0 W/m 12,9 km/h (3 Bft) 100,00 %
15.02.2019 02:00 4,7 C 3,9 C 2,8 C 71 % 1031,4 hPa 0,0 l/m 0 min 0 min 0 W/m 9,7 km/h (2 Bft) 100,00 %
15.02.2019 02:02 4,7 C 3,9 C 2,8 C 71 % 1031,4 hPa 0,0 l/m 0 min 0 min 0 W/m 9,7 km/h (2 Bft) 100,00 %
15.02.2019 02:04 4,7 C 3,9 C 2,8 C 71 % 1031,4 hPa 0,0 l/m 0 min 0 min 0 W/m 6,4 km/h (2 Bft) 97,87 %
15.02.2019 02:06 4,7 C 3,9 C 2,8 C 71 % 1031,5 hPa 0,0 l/m 0 min 0 min 0 W/m 9,7 km/h (2 Bft) 96,15 %
15.02.2019 02:08 4,7 C 3,9 C 2,8 C 71 % 1031,4 hPa 0,0 l/m 0 min 0 min 0 W/m 6,4 km/h (2 Bft) 97,56 %
15.02.2019 02:10 4,6 C 3,9 C 2,8 C 71 % 1031,4 hPa 0,0 l/m 0 min 0 min 0 W/m 6,4 km/h (2 Bft) 97,87 %
15.02.2019 02:12 4,6 C 3,9 C 2,8 C 71 % 1031,4 hPa 0,0 l/m 0 min 0 min 0 W/m 6,4 km/h (2 Bft) 97,87 %
15.02.2019 02:14 4,6 C 3,9 C 2,2 C 71 % 1031,4 hPa 0,0 l/m 0 min 0 min 0 W/m 9,7 km/h (2 Bft) 95,74 %
15.02.2019 02:16 4,6 C 3,9 C 2,2 C 71 % 1031,4 hPa 0,0 l/m 0 min 0 min 0 W/m 9,7 km/h (2 Bft) 97,87 %
15.02.2019 02:18 4,5 C 3,3 C 2,2 C 71 % 1031,3 hPa 0,0 l/m 0 min 0 min 0 W/m 3,2 km/h (1 Bft) 97,83 %
15.02.2019 02:20 4,4 C 3,3 C 2,2 C 71 % 1031,4 hPa 0,0 l/m 0 min 0 min 0 W/m 6,4 km/h (2 Bft) 97,87 %
15.02.2019 02:22 4,4 C 3,3 C 2,2 C 71 % 1031,4 hPa 0,0 l/m 0 min 0 min 0 W/m 6,4 km/h (2 Bft) 97,87 %
15.02.2019 02:24 4,4 C 3,3 C 2,2 C 71 % 1031,3 hPa 0,0 l/m 0 min 0 min 0 W/m 6,4 km/h (2 Bft) 97,87 %
15.02.2019 02:26 4,4 C 3,3 C 2,2 C 71 % 1031,4 hPa 0,0 l/m 0 min 0 min 0 W/m 9,7 km/h (2 Bft) 97,87 %
15.02.2019 02:28 4,4 C 3,9 C 2,2 C 71 % 1031,3 hPa 0,0 l/m 0 min 0 min 0 W/m 9,7 km/h (2 Bft) 97,87 %
15.02.2019 02:30 4,3 C 3,3 C 2,2 C 71 % 1031,4 hPa 0,0 l/m 0 min 0 min 0 W/m 3,2 km/h (1 Bft) 97,83 %
15.02.2019 02:32 4,3 C 3,3 C 1,7 C 71 % 1031,3 hPa 0,0 l/m 0 min 0 min 0 W/m 6,4 km/h (2 Bft) 95,74 %
15.02.2019 02:34 4,3 C 3,3 C 1,7 C 71 % 1031,3 hPa 0,0 l/m 0 min 0 min 0 W/m 3,2 km/h (1 Bft) 97,87 %
15.02.2019 02:36 4,3 C 3,3 C 1,1 C 71 % 1031,3 hPa 0,0 l/m 0 min 0 min 0 W/m 3,2 km/h (1 Bft) 98,08 %
15.02.2019 02:38 4,3 C 2,8 C 1,1 C 71 % 1031,3 hPa 0,0 l/m 0 min 0 min 0 W/m 6,4 km/h (2 Bft) 97,62 %
15.02.2019 02:40 4,2 C 3,3 C 1,1 C 71 % 1031,3 hPa 0,0 l/m 0 min 0 min 0 W/m 6,4 km/h (2 Bft) 97,87 %
15.02.2019 02:42 4,2 C 3,3 C 1,1 C 71 % 1031,2 hPa 0,0 l/m 0 min 0 min 0 W/m 6,4 km/h (2 Bft) 97,83 %
15.02.2019 02:44 4,2 C 3,3 C 1,1 C 71 % 1031,2 hPa 0,0 l/m 0 min 0 min 0 W/m 6,4 km/h (2 Bft) 97,87 %
15.02.2019 02:46 4,2 C 3,3 C 1,1 C 71 % 1031,2 hPa 0,0 l/m 0 min 0 min 0 W/m 3,2 km/h (1 Bft) 93,62 %
15.02.2019 02:48 4,2 C 3,3 C 1,1 C 72 % 1031,2 hPa 0,0 l/m 0 min 0 min 0 W/m 6,4 km/h (2 Bft) 97,87 %
15.02.2019 02:50 4,1 C 3,3 C 0,6 C 72 % 1031,2 hPa 0,0 l/m 0 min 0 min 0 W/m 6,4 km/h (2 Bft) 100,00 %
15.02.2019 02:52 4,1 C 3,3 C 1,1 C 72 % 1031,2 hPa 0,0 l/m 0 min 0 min 0 W/m 6,4 km/h (2 Bft) 97,87 %
15.02.2019 02:54 4,1 C 3,3 C 1,1 C 72 % 1031,1 hPa 0,0 l/m 0 min 0 min 0 W/m 6,4 km/h (2 Bft) 100,00 %
15.02.2019 02:56 4,1 C 3,3 C 0,6 C 72 % 1031,2 hPa 0,0 l/m 0 min 0 min 0 W/m 6,4 km/h (2 Bft) 100,00 %
15.02.2019 02:58 4,0 C 3,3 C 1,1 C 72 % 1031,2 hPa 0,0 l/m 0 min 0 min 0 W/m 9,7 km/h (2 Bft) 97,87 %
15.02.2019 03:00 4,0 C 3,3 C 1,1 C 72 % 1031,1 hPa 0,0 l/m 0 min 0 min 0 W/m 6,4 km/h (2 Bft) 97,87 %
15.02.2019 03:02 3,9 C 3,3 C 1,1 C 72 % 1031,1 hPa 0,0 l/m 0 min 0 min 0 W/m 6,4 km/h (2 Bft) 97,87 %
15.02.2019 03:04 3,9 C 3,3 C 1,7 C 72 % 1031,0 hPa 0,0 l/m 0 min 0 min 0 W/m 6,4 km/h (2 Bft) 97,87 %
15.02.2019 03:06 3,9 C 3,3 C 1,7 C 71 % 1031,0 hPa 0,0 l/m 0 min 0 min 0 W/m 9,7 km/h (2 Bft) 98,08 %
15.02.2019 03:08 3,9 C 3,3 C 1,7 C 71 % 1031,0 hPa 0,0 l/m 0 min 0 min 0 W/m 6,4 km/h (2 Bft) 97,73 %
15.02.2019 03:10 3,9 C 3,3 C 1,7 C 71 % 1031,0 hPa 0,0 l/m 0 min 0 min 0 W/m 6,4 km/h (2 Bft) 97,87 %
15.02.2019 03:12 3,9 C 3,3 C 1,7 C 71 % 1031,0 hPa 0,0 l/m 0 min 0 min 0 W/m 6,4 km/h (2 Bft) 97,87 %
15.02.2019 03:14 3,9 C 3,3 C 1,7 C 71 % 1030,9 hPa 0,0 l/m 0 min 0 min 0 W/m 6,4 km/h (2 Bft) 95,74 %
15.02.2019 03:16 3,9 C 3,3 C 1,7 C 71 % 1030,8 hPa 0,0 l/m 0 min 0 min 0 W/m 9,7 km/h (2 Bft) 97,83 %
15.02.2019 03:18 3,8 C 3,3 C 2,2 C 71 % 1030,8 hPa 0,0 l/m 0 min 0 min 0 W/m 12,9 km/h (3 Bft) 95,74 %
15.02.2019 03:20 3,8 C 3,3 C 2,2 C 71 % 1030,9 hPa 0,0 l/m 0 min 0 min 0 W/m 6,4 km/h (2 Bft) 95,74 %
15.02.2019 03:22 3,8 C 3,3 C 2,2 C 71 % 1030,8 hPa 0,0 l/m 0 min 0 min 0 W/m 9,7 km/h (2 Bft) 95,74 %
15.02.2019 03:24 3,8 C 3,3 C 2,2 C 71 % 1030,8 hPa 0,0 l/m 0 min 0 min 0 W/m 9,7 km/h (2 Bft) 95,74 %
15.02.2019 03:26 3,8 C 3,3 C 2,2 C 71 % 1030,8 hPa 0,0 l/m 0 min 0 min 0 W/m 9,7 km/h (2 Bft) 95,74 %
15.02.2019 03:28 3,8 C 3,3 C 2,2 C 71 % 1030,8 hPa 0,0 l/m 0 min 0 min 0 W/m 16,1 km/h (3 Bft) 95,65 %
15.02.2019 03:30 3,9 C 3,3 C 2,2 C 71 % 1030,8 hPa 0,0 l/m 0 min 0 min 0 W/m 16,1 km/h (3 Bft) 95,74 %
15.02.2019 03:32 3,9 C 3,9 C 2,8 C 71 % 1030,8 hPa 0,0 l/m 0 min 0 min 0 W/m 12,9 km/h (3 Bft) 93,62 %
15.02.2019 03:34 3,9 C 3,9 C 2,8 C 71 % 1030,8 hPa 0,0 l/m 0 min 0 min 0 W/m 12,9 km/h (3 Bft) 95,74 %
15.02.2019 03:36 3,9 C 3,9 C 2,8 C 71 % 1030,7 hPa 0,0 l/m 0 min 0 min 0 W/m 16,1 km/h (3 Bft) 95,74 %
15.02.2019 03:38 3,9 C 3,3 C 2,8 C 71 % 1030,7 hPa 0,0 l/m 0 min 0 min 0 W/m 9,7 km/h (2 Bft) 95,74 %
15.02.2019 03:40 3,9 C 3,3 C 2,2 C 71 % 1030,7 hPa 0,0 l/m 0 min 0 min 0 W/m 9,7 km/h (2 Bft) 95,65 %
15.02.2019 03:42 3,9 C 3,3 C 2,8 C 71 % 1030,7 hPa 0,0 l/m 0 min 0 min 0 W/m 19,3 km/h (3 Bft) 95,74 %
15.02.2019 03:44 3,9 C 3,3 C 2,8 C 71 % 1030,7 hPa 0,0 l/m 0 min 0 min 0 W/m 9,7 km/h (2 Bft) 95,74 %
15.02.2019 03:46 3,9 C 3,3 C 2,8 C 71 % 1030,7 hPa 0,0 l/m 0 min 0 min 0 W/m 12,9 km/h (3 Bft) 95,74 %
15.02.2019 03:48 3,9 C 3,9 C 2,8 C 71 % 1030,7 hPa 0,0 l/m 0 min 0 min 0 W/m 16,1 km/h (3 Bft) 97,87 %
15.02.2019 03:50 4,0 C 3,9 C 2,8 C 71 % 1030,7 hPa 0,0 l/m 0 min 0 min 0 W/m 16,1 km/h (3 Bft) 97,87 %
15.02.2019 03:52 4,0 C 3,9 C 2,8 C 71 % 1030,6 hPa 0,0 l/m 0 min 0 min 0 W/m 12,9 km/h (3 Bft) 93,48 %
15.02.2019 03:54 4,0 C 3,9 C 2,8 C 70 % 1030,6 hPa 0,0 l/m 0 min 0 min 0 W/m 12,9 km/h (3 Bft) 95,74 %
15.02.2019 03:56 4,1 C 3,9 C 2,8 C 70 % 1030,6 hPa 0,0 l/m 0 min 0 min 0 W/m 16,1 km/h (3 Bft) 97,87 %
15.02.2019 03:58 4,1 C 3,9 C 2,8 C 70 % 1030,6 hPa 0,0 l/m 0 min 0 min 0 W/m 12,9 km/h (3 Bft) 97,87 %
15.02.2019 04:00 4,1 C 3,9 C 2,8 C 70 % 1030,6 hPa 0,0 l/m 0 min 0 min 0 W/m 9,7 km/h (2 Bft) 97,87 %
15.02.2019 04:02 4,1 C 3,3 C 2,8 C 70 % 1030,6 hPa 0,0 l/m 0 min 0 min 0 W/m 16,1 km/h (3 Bft) 96,30 %
15.02.2019 04:04 4,1 C 3,9 C 2,8 C 70 % 1030,7 hPa 0,0 l/m 0 min 0 min 0 W/m 9,7 km/h (2 Bft) 97,87 %
15.02.2019 04:06 4,1 C 3,3 C 2,8 C 70 % 1030,6 hPa 0,0 l/m 0 min 0 min 0 W/m 9,7 km/h (2 Bft) 95,74 %
15.02.2019 04:08 4,1 C 3,9 C 2,8 C 70 % 1030,6 hPa 0,0 l/m 0 min 0 min 0 W/m 9,7 km/h (2 Bft) 97,87 %
15.02.2019 04:13 4,1 C 3,9 C 2,8 C 70 % 1030,5 hPa 0,0 l/m 0 min 0 min 0 W/m 12,9 km/h (3 Bft) 97,06 %
15.02.2019 04:14 4,1 C 3,9 C 2,8 C 70 % 1030,5 hPa 0,0 l/m 0 min 0 min 0 W/m 6,4 km/h (2 Bft) 91,30 %
15.02.2019 04:16 4,1 C 3,3 C 2,8 C 70 % 1030,5 hPa 0,0 l/m 0 min 0 min 0 W/m 9,7 km/h (2 Bft) 97,87 %
15.02.2019 04:18 4,1 C 3,9 C 2,8 C 70 % 1030,5 hPa 0,0 l/m 0 min 0 min 0 W/m 9,7 km/h (2 Bft) 97,87 %
15.02.2019 04:20 4,1 C 3,9 C 2,8 C 70 % 1030,4 hPa 0,0 l/m 0 min 0 min 0 W/m 12,9 km/h (3 Bft) 97,87 %
15.02.2019 04:22 4,2 C 3,9 C 2,8 C 70 % 1030,5 hPa 0,0 l/m 0 min 0 min 0 W/m 9,7 km/h (2 Bft) 95,74 %
15.02.2019 04:24 4,1 C 3,9 C 2,8 C 70 % 1030,6 hPa 0,0 l/m 0 min 0 min 0 W/m 12,9 km/h (3 Bft) 97,87 %
15.02.2019 04:26 4,2 C 3,9 C 2,8 C 70 % 1030,5 hPa 0,0 l/m 0 min 0 min 0 W/m 16,1 km/h (3 Bft) 100,00 %
15.02.2019 04:28 4,1 C 3,3 C 2,8 C 70 % 1030,5 hPa 0,0 l/m 0 min 0 min 0 W/m 9,7 km/h (2 Bft) 97,87 %
15.02.2019 04:30 4,1 C 3,3 C 2,8 C 70 % 1030,5 hPa 0,0 l/m 0 min 0 min 0 W/m 19,3 km/h (3 Bft) 97,87 %
15.02.2019 04:32 4,1 C 3,3 C 2,8 C 70 % 1030,5 hPa 0,0 l/m 0 min 0 min 0 W/m 9,7 km/h (2 Bft) 100,00 %
15.02.2019 04:34 4,1 C 3,3 C 2,8 C 70 % 1030,5 hPa 0,0 l/m 0 min 0 min 0 W/m 9,7 km/h (2 Bft) 97,87 %
15.02.2019 04:36 4,1 C 3,3 C 2,8 C 70 % 1030,5 hPa 0,0 l/m 0 min 0 min 0 W/m 12,9 km/h (3 Bft) 97,87 %
15.02.2019 04:38 4,1 C 3,3 C 2,8 C 70 % 1030,5 hPa 0,0 l/m 0 min 0 min 0 W/m 12,9 km/h (3 Bft) 95,65 %
15.02.2019 04:40 4,1 C 3,3 C 2,8 C 70 % 1030,5 hPa 0,0 l/m 0 min 0 min 0 W/m 12,9 km/h (3 Bft) 97,87 %
15.02.2019 04:42 4,1 C 3,3 C 2,8 C 70 % 1030,5 hPa 0,0 l/m 0 min 0 min 0 W/m 9,7 km/h (2 Bft) 97,87 %
15.02.2019 04:44 4,1 C 3,3 C 2,8 C 70 % 1030,5 hPa 0,0 l/m 0 min 0 min 0 W/m 16,1 km/h (3 Bft) 97,87 %
15.02.2019 04:46 4,1 C 3,3 C 2,8 C 70 % 1030,5 hPa 0,0 l/m 0 min 0 min 0 W/m 12,9 km/h (3 Bft) 97,87 %
15.02.2019 04:48 4,1 C 3,3 C 2,8 C 70 % 1030,5 hPa 0,0 l/m 0 min 0 min 0 W/m 16,1 km/h (3 Bft) 97,87 %
15.02.2019 04:50 4,1 C 3,3 C 2,2 C 70 % 1030,4 hPa 0,0 l/m 0 min 0 min 0 W/m 6,4 km/h (2 Bft) 97,83 %
15.02.2019 04:52 4,1 C 3,3 C 2,2 C 70 % 1030,5 hPa 0,0 l/m 0 min 0 min 0 W/m 6,4 km/h (2 Bft) 97,87 %
15.02.2019 04:54 4,0 C 3,3 C 2,2 C 71 % 1030,5 hPa 0,0 l/m 0 min 0 min 0 W/m 9,7 km/h (2 Bft) 97,87 %
15.02.2019 04:56 4,0 C 3,3 C 2,2 C 71 % 1030,4 hPa 0,0 l/m 0 min 0 min 0 W/m 9,7 km/h (2 Bft) 97,87 %
15.02.2019 04:58 4,0 C 3,3 C 2,2 C 71 % 1030,4 hPa 0,0 l/m 0 min 0 min 0 W/m 12,9 km/h (3 Bft) 95,74 %
15.02.2019 05:00 4,0 C 3,3 C 2,2 C 71 % 1030,4 hPa 0,0 l/m 0 min 0 min 0 W/m 9,7 km/h (2 Bft) 95,65 %
15.02.2019 05:02 4,0 C 3,3 C 2,2 C 71 % 1030,4 hPa 0,0 l/m 0 min 0 min 0 W/m 12,9 km/h (3 Bft) 97,87 %
15.02.2019 05:04 4,0 C 3,3 C 2,2 C 71 % 1030,4 hPa 0,0 l/m 0 min 0 min 0 W/m 6,4 km/h (2 Bft) 97,87 %
15.02.2019 05:05 4,0 C 3,3 C 2,2 C 71 % 1030,4 hPa 0,0 l/m 0 min 0 min 0 W/m 12,9 km/h (3 Bft) 100,00 %
15.02.2019 05:10 4,0 C 3,3 C 2,2 C 71 % 1030,4 hPa 0,0 l/m 0 min 0 min 0 W/m 9,7 km/h (2 Bft) 99,12 %
15.02.2019 05:12 4,0 C 3,3 C 2,2 C 71 % 1030,4 hPa 0,0 l/m 0 min 0 min 0 W/m 6,4 km/h (2 Bft) 100,00 %
15.02.2019 05:14 4,0 C 3,3 C 2,2 C 71 % 1030,4 hPa 0,0 l/m 0 min 0 min 0 W/m 12,9 km/h (3 Bft) 100,00 %
15.02.2019 05:16 3,9 C 3,3 C 2,2 C 71 % 1030,5 hPa 0,0 l/m 0 min 0 min 0 W/m 6,4 km/h (2 Bft) 100,00 %
15.02.2019 05:18 3,9 C 3,3 C 2,2 C 71 % 1030,4 hPa 0,0 l/m 0 min 0 min 0 W/m 6,4 km/h (2 Bft) 100,00 %
15.02.2019 05:20 3,9 C 3,3 C 2,2 C 71 % 1030,5 hPa 0,0 l/m 0 min 0 min 0 W/m 3,2 km/h (1 Bft) 100,00 %
15.02.2019 05:22 3,9 C 3,3 C 1,7 C 71 % 1030,4 hPa 0,0 l/m 0 min 0 min 0 W/m 0,0 km/h (0 Bft) 97,96 %
15.02.2019 05:24 3,9 C 3,3 C 1,7 C 71 % 1030,4 hPa 0,0 l/m 0 min 0 min 0 W/m 9,7 km/h (2 Bft) 100,00 %
15.02.2019 05:26 3,9 C 3,3 C 1,7 C 71 % 1030,3 hPa 0,0 l/m 0 min 0 min 0 W/m 6,4 km/h (2 Bft) 100,00 %
15.02.2019 05:28 3,9 C 3,3 C 1,7 C 71 % 1030,3 hPa 0,0 l/m 0 min 0 min 0 W/m 6,4 km/h (2 Bft) 100,00 %
15.02.2019 05:30 3,9 C 3,3 C 1,7 C 71 % 1030,3 hPa 0,0 l/m 0 min 0 min 0 W/m 6,4 km/h (2 Bft) 100,00 %
15.02.2019 05:32 3,8 C 3,3 C 1,7 C 71 % 1030,4 hPa 0,0 l/m 0 min 0 min 0 W/m 3,2 km/h (1 Bft) 97,37 %
15.02.2019 05:34 3,8 C 3,3 C 1,7 C 72 % 1030,4 hPa 0,0 l/m 0 min 0 min 0 W/m 6,4 km/h (2 Bft) 100,00 %
15.02.2019 05:36 3,8 C 3,3 C 1,7 C 72 % 1030,3 hPa 0,0 l/m 0 min 0 min 0 W/m 9,7 km/h (2 Bft) 100,00 %
15.02.2019 05:38 3,8 C 3,3 C 1,7 C 72 % 1030,3 hPa 0,0 l/m 0 min 0 min 0 W/m 9,7 km/h (2 Bft) 100,00 %
15.02.2019 05:40 3,8 C 3,3 C 1,7 C 72 % 1030,3 hPa 0,0 l/m 0 min 0 min 0 W/m 9,7 km/h (2 Bft) 100,00 %
15.02.2019 05:42 3,8 C 3,3 C 1,7 C 72 % 1030,3 hPa 0,0 l/m 0 min 0 min 0 W/m 9,7 km/h (2 Bft) 100,00 %
15.02.2019 05:44 3,8 C 3,3 C 2,2 C 72 % 1030,3 hPa 0,0 l/m 0 min 0 min 0 W/m 9,7 km/h (2 Bft) 100,00 %
15.02.2019 05:46 3,8 C 3,3 C 2,2 C 72 % 1030,3 hPa 0,0 l/m 0 min 0 min 0 W/m 9,7 km/h (2 Bft) 94,59 %
15.02.2019 05:48 3,8 C 3,3 C 1,7 C 72 % 1030,3 hPa 0,0 l/m 0 min 0 min 0 W/m 6,4 km/h (2 Bft) 98,15 %
15.02.2019 05:50 3,8 C 3,3 C 2,2 C 72 % 1030,3 hPa 0,0 l/m 0 min 0 min 0 W/m 9,7 km/h (2 Bft) 97,62 %
15.02.2019 05:52 3,8 C 3,3 C 1,7 C 72 % 1030,3 hPa 0,0 l/m 0 min 0 min 0 W/m 6,4 km/h (2 Bft) 96,36 %
15.02.2019 05:54 3,8 C 3,3 C 1,7 C 72 % 1030,4 hPa 0,0 l/m 0 min 0 min 0 W/m 6,4 km/h (2 Bft) 98,00 %
15.02.2019 05:56 3,8 C 3,3 C 1,7 C 72 % 1030,3 hPa 0,0 l/m 0 min 0 min 0 W/m 6,4 km/h (2 Bft) 97,37 %
15.02.2019 05:58 3,7 C 3,3 C 1,7 C 72 % 1030,4 hPa 0,0 l/m 0 min 0 min 0 W/m 9,7 km/h (2 Bft) 98,00 %
15.02.2019 06:00 3,7 C 3,3 C 1,7 C 72 % 1030,3 hPa 0,0 l/m 0 min 0 min 0 W/m 6,4 km/h (2 Bft) 97,96 %
15.02.2019 06:02 3,7 C 3,3 C 1,7 C 72 % 1030,4 hPa 0,0 l/m 0 min 0 min 0 W/m 9,7 km/h (2 Bft) 98,00 %
15.02.2019 06:04 3,7 C 3,3 C 1,7 C 72 % 1030,4 hPa 0,0 l/m 0 min 0 min 0 W/m 9,7 km/h (2 Bft) 97,14 %
15.02.2019 06:08 3,7 C 3,3 C 2,2 C 72 % 1030,4 hPa 0,0 l/m 0 min 0 min 0 W/m 16,1 km/h (3 Bft) 96,88 %
15.02.2019 06:10 3,7 C 3,3 C 2,2 C 72 % 1030,4 hPa 0,0 l/m 0 min 0 min 0 W/m 9,7 km/h (2 Bft) 97,87 %
15.02.2019 06:12 3,7 C 3,3 C 2,2 C 72 % 1030,4 hPa 0,0 l/m 0 min 0 min 0 W/m 12,9 km/h (3 Bft) 97,96 %
15.02.2019 06:14 3,7 C 3,3 C 2,2 C 72 % 1030,4 hPa 0,0 l/m 0 min 0 min 0 W/m 9,7 km/h (2 Bft) 97,92 %
15.02.2019 06:16 3,7 C 3,3 C 2,2 C 72 % 1030,4 hPa 0,0 l/m 0 min 0 min 0 W/m 6,4 km/h (2 Bft) 97,73 %
15.02.2019 06:18 3,7 C 3,3 C 2,2 C 72 % 1030,4 hPa 0,0 l/m 0 min 0 min 0 W/m 9,7 km/h (2 Bft) 98,00 %
15.02.2019 06:20 3,7 C 3,3 C 2,2 C 72 % 1030,4 hPa 0,0 l/m 0 min 0 min 0 W/m 9,7 km/h (2 Bft) 97,87 %
15.02.2019 06:22 3,7 C 3,3 C 2,2 C 72 % 1030,4 hPa 0,0 l/m 0 min 0 min 0 W/m 12,9 km/h (3 Bft) 95,92 %
15.02.2019 06:24 3,8 C 3,3 C 2,2 C 72 % 1030,4 hPa 0,0 l/m 0 min 0 min 0 W/m 9,7 km/h (2 Bft) 100,00 %
15.02.2019 06:26 3,8 C 3,3 C 2,2 C 72 % 1030,3 hPa 0,0 l/m 0 min 0 min 0 W/m 6,4 km/h (2 Bft) 96,30 %
15.02.2019 06:28 3,8 C 3,3 C 2,2 C 72 % 1030,3 hPa 0,0 l/m 0 min 0 min 0 W/m 9,7 km/h (2 Bft) 96,00 %
15.02.2019 06:30 3,8 C 3,3 C 2,2 C 72 % 1030,3 hPa 0,0 l/m 0 min 0 min 0 W/m 19,3 km/h (3 Bft) 96,00 %
15.02.2019 06:32 3,8 C 3,3 C 2,2 C 72 % 1030,3 hPa 0,0 l/m 0 min 0 min 0 W/m 9,7 km/h (2 Bft) 95,24 %
15.02.2019 06:34 3,8 C 3,3 C 2,2 C 73 % 1030,3 hPa 0,0 l/m 0 min 0 min 0 W/m 12,9 km/h (3 Bft) 97,87 %
15.02.2019 06:36 3,8 C 3,3 C 2,2 C 73 % 1030,3 hPa 0,0 l/m 0 min 0 min 0 W/m 9,7 km/h (2 Bft) 100,00 %
15.02.2019 06:38 3,8 C 3,3 C 2,2 C 73 % 1030,3 hPa 0,0 l/m 0 min 0 min 0 W/m 12,9 km/h (3 Bft) 100,00 %
15.02.2019 06:40 3,8 C 3,3 C 2,2 C 73 % 1030,3 hPa 0,0 l/m 0 min 0 min 0 W/m 12,9 km/h (3 Bft) 100,00 %
15.02.2019 06:42 3,8 C 3,3 C 2,2 C 73 % 1030,3 hPa 0,0 l/m 0 min 0 min 0 W/m 9,7 km/h (2 Bft) 95,92 %
15.02.2019 06:44 3,8 C 3,3 C 2,2 C 73 % 1030,3 hPa 0,0 l/m 0 min 0 min 0 W/m 12,9 km/h (3 Bft) 100,00 %
15.02.2019 06:46 3,7 C 3,3 C 2,2 C 73 % 1030,2 hPa 0,0 l/m 0 min 0 min 0 W/m 9,7 km/h (2 Bft) 100,00 %
15.02.2019 06:48 3,7 C 3,3 C 2,2 C 73 % 1030,2 hPa 0,0 l/m 0 min 0 min 0 W/m 9,7 km/h (2 Bft) 97,87 %
15.02.2019 06:50 3,7 C 3,3 C 2,2 C 73 % 1030,3 hPa 0,0 l/m 0 min 0 min 0 W/m 9,7 km/h (2 Bft) 95,74 %
15.02.2019 06:52 3,7 C 3,3 C 2,2 C 73 % 1030,3 hPa 0,0 l/m 0 min 0 min 0 W/m 12,9 km/h (3 Bft) 97,87 %
15.02.2019 06:54 3,7 C 3,3 C 2,2 C 73 % 1030,3 hPa 0,0 l/m 0 min 0 min 0 W/m 12,9 km/h (3 Bft) 97,87 %
15.02.2019 06:56 3,7 C 3,3 C 2,2 C 73 % 1030,3 hPa 0,0 l/m 0 min 0 min 0 W/m 12,9 km/h (3 Bft) 97,56 %
15.02.2019 06:58 3,7 C 3,3 C 2,2 C 73 % 1030,3 hPa 0,0 l/m 0 min 0 min 0 W/m 12,9 km/h (3 Bft) 97,96 %
15.02.2019 07:00 3,7 C 3,3 C 2,2 C 73 % 1030,3 hPa 0,0 l/m 0 min 0 min 0 W/m 9,7 km/h (2 Bft) 93,62 %
15.02.2019 07:02 3,7 C 3,3 C 2,2 C 73 % 1030,4 hPa 0,0 l/m 0 min 0 min 0 W/m 9,7 km/h (2 Bft) 97,37 %
15.02.2019 07:04 3,7 C 2,8 C 2,2 C 73 % 1030,3 hPa 0,0 l/m 0 min 0 min 0 W/m 6,4 km/h (2 Bft) 97,87 %
15.02.2019 07:06 3,7 C 2,8 C 1,7 C 73 % 1030,3 hPa 0,0 l/m 0 min 0 min 0 W/m 6,4 km/h (2 Bft) 96,61 %
15.02.2019 07:08 3,7 C 2,8 C 1,7 C 73 % 1030,3 hPa 0,0 l/m 0 min 0 min 0 W/m 9,7 km/h (2 Bft) 94,29 %
15.02.2019 07:10 3,7 C 2,8 C 1,7 C 73 % 1030,3 hPa 0,0 l/m 0 min 0 min 0 W/m 6,4 km/h (2 Bft) 95,74 %
15.02.2019 07:12 3,7 C 2,8 C 2,2 C 73 % 1030,3 hPa 0,0 l/m 0 min 0 min 0 W/m 12,9 km/h (3 Bft) 95,83 %
15.02.2019 07:14 3,6 C 3,3 C 2,2 C 73 % 1030,2 hPa 0,0 l/m 0 min 0 min 0 W/m 12,9 km/h (3 Bft) 93,75 %
15.02.2019 07:16 3,6 C 2,8 C 2,2 C 73 % 1030,3 hPa 0,0 l/m 0 min 0 min 0 W/m 12,9 km/h (3 Bft) 95,74 %
15.02.2019 07:18 3,6 C 2,8 C 2,2 C 73 % 1030,3 hPa 0,0 l/m 0 min 0 min 0 W/m 9,7 km/h (2 Bft) 95,74 %
15.02.2019 07:20 3,6 C 2,8 C 2,2 C 73 % 1030,3 hPa 0,0 l/m 0 min 0 min 0 W/m 9,7 km/h (2 Bft) 91,49 %
15.02.2019 07:22 3,6 C 2,8 C 2,2 C 74 % 1030,3 hPa 0,0 l/m 0 min 0 min 0 W/m 9,7 km/h (2 Bft) 89,13 %
15.02.2019 07:24 3,6 C 3,3 C 2,2 C 73 % 1030,3 hPa 0,0 l/m 0 min 0 min 0 W/m 12,9 km/h (3 Bft) 93,62 %
15.02.2019 07:26 3,6 C 2,8 C 2,2 C 74 % 1030,2 hPa 0,0 l/m 0 min 0 min 0 W/m 9,7 km/h (2 Bft) 95,74 %
15.02.2019 07:28 3,6 C 2,8 C 2,2 C 74 % 1030,3 hPa 0,0 l/m 0 min 0 min 0 W/m 12,9 km/h (3 Bft) 95,74 %
15.02.2019 07:30 3,6 C 2,8 C 2,2 C 74 % 1030,3 hPa 0,0 l/m 0 min 0 min 0 W/m 9,7 km/h (2 Bft) 95,74 %
15.02.2019 07:32 3,6 C 2,8 C 2,2 C 74 % 1030,3 hPa 0,0 l/m 0 min 0 min 0 W/m 9,7 km/h (2 Bft) 95,65 %
15.02.2019 07:34 3,6 C 2,8 C 1,7 C 74 % 1030,3 hPa 0,0 l/m 0 min 0 min 0 W/m 9,7 km/h (2 Bft) 95,74 %
15.02.2019 07:36 3,6 C 2,8 C 2,2 C 74 % 1030,2 hPa 0,0 l/m 0 min 0 min 0 W/m 12,9 km/h (3 Bft) 94,92 %
15.02.2019 07:38 3,5 C 2,8 C 1,7 C 74 % 1030,3 hPa 0,0 l/m 0 min 0 min 0 W/m 9,7 km/h (2 Bft) 97,14 %
15.02.2019 07:40 3,5 C 2,8 C 2,2 C 74 % 1030,3 hPa 0,0 l/m 0 min 0 min 0 W/m 12,9 km/h (3 Bft) 93,62 %
15.02.2019 07:42 3,5 C 2,8 C 2,2 C 74 % 1030,3 hPa 0,0 l/m 0 min 0 min 0 W/m 9,7 km/h (2 Bft) 95,74 %
15.02.2019 07:44 3,5 C 3,3 C 2,2 C 74 % 1030,3 hPa 0,0 l/m 0 min 0 min 0 W/m 12,9 km/h (3 Bft) 95,65 %
15.02.2019 07:46 3,5 C 3,3 C 2,2 C 74 % 1030,3 hPa 0,0 l/m 0 min 0 min 0 W/m 9,7 km/h (2 Bft) 91,49 %
15.02.2019 07:48 3,5 C 3,3 C 2,2 C 74 % 1030,3 hPa 0,0 l/m 0 min 0 min 1 W/m 9,7 km/h (2 Bft) 97,87 %
15.02.2019 07:50 3,5 C 3,3 C 2,2 C 74 % 1030,4 hPa 0,0 l/m 0 min 0 min 5 W/m 6,4 km/h (2 Bft) 97,87 %
15.02.2019 07:52 3,5 C 2,8 C 2,2 C 74 % 1030,5 hPa 0,0 l/m 0 min 0 min 5 W/m 9,7 km/h (2 Bft) 93,62 %
15.02.2019 07:54 3,5 C 3,3 C 2,2 C 74 % 1030,4 hPa 0,0 l/m 0 min 0 min 6 W/m 12,9 km/h (3 Bft) 91,49 %
15.02.2019 07:56 3,5 C 2,8 C 2,2 C 74 % 1030,4 hPa 0,0 l/m 0 min 0 min 7 W/m 9,7 km/h (2 Bft) 95,65 %
15.02.2019 07:58 3,5 C 3,3 C 2,2 C 74 % 1030,4 hPa 0,0 l/m 0 min 0 min 7 W/m 12,9 km/h (3 Bft) 95,74 %
15.02.2019 08:00 3,5 C 3,3 C 2,2 C 74 % 1030,4 hPa 0,0 l/m 0 min 0 min 8 W/m 12,9 km/h (3 Bft) 97,87 %
15.02.2019 08:02 3,5 C 3,3 C 2,2 C 74 % 1030,4 hPa 0,0 l/m 0 min 0 min 9 W/m 12,9 km/h (3 Bft) 97,87 %
15.02.2019 08:04 3,5 C 3,3 C 2,2 C 74 % 1030,4 hPa 0,0 l/m 0 min 0 min 9 W/m 6,4 km/h (2 Bft) 95,74 %
15.02.2019 08:06 3,5 C 3,3 C 2,2 C 74 % 1030,4 hPa 0,0 l/m 0 min 0 min 10 W/m 12,9 km/h (3 Bft) 98,28 %
15.02.2019 08:08 3,5 C 3,3 C 2,2 C 74 % 1030,4 hPa 0,0 l/m 0 min 0 min 11 W/m 12,9 km/h (3 Bft) 100,00 %
15.02.2019 08:10 3,5 C 3,3 C 2,2 C 74 % 1030,5 hPa 0,0 l/m 0 min 0 min 11 W/m 9,7 km/h (2 Bft) 100,00 %
15.02.2019 08:12 3,6 C 3,3 C 2,2 C 74 % 1030,5 hPa 0,0 l/m 0 min 0 min 11 W/m 9,7 km/h (2 Bft) 95,74 %
15.02.2019 08:14 3,6 C 3,3 C 2,2 C 74 % 1030,5 hPa 0,0 l/m 0 min 0 min 12 W/m 12,9 km/h (3 Bft) 100,00 %
15.02.2019 08:16 3,6 C 3,3 C 2,2 C 74 % 1030,6 hPa 0,0 l/m 0 min 0 min 12 W/m 9,7 km/h (2 Bft) 100,00 %
15.02.2019 08:18 3,6 C 3,3 C 2,2 C 74 % 1030,6 hPa 0,0 l/m 0 min 0 min 13 W/m 9,7 km/h (2 Bft) 100,00 %
15.02.2019 08:20 3,6 C 3,3 C 2,2 C 74 % 1030,6 hPa 0,0 l/m 0 min 0 min 14 W/m 9,7 km/h (2 Bft) 95,65 %
15.02.2019 08:22 3,6 C 3,3 C 2,2 C 74 % 1030,6 hPa 0,0 l/m 0 min 0 min 14 W/m 6,4 km/h (2 Bft) 100,00 %
15.02.2019 08:24 3,6 C 3,3 C 2,8 C 74 % 1030,6 hPa 0,0 l/m 0 min 0 min 15 W/m 12,9 km/h (3 Bft) 100,00 %
15.02.2019 08:26 3,6 C 3,3 C 2,8 C 75 % 1030,6 hPa 0,0 l/m 0 min 0 min 16 W/m 12,9 km/h (3 Bft) 97,87 %
15.02.2019 08:28 3,6 C 3,3 C 2,8 C 75 % 1030,7 hPa 0,0 l/m 0 min 0 min 16 W/m 12,9 km/h (3 Bft) 100,00 %
15.02.2019 08:30 3,7 C 3,3 C 2,8 C 75 % 1030,6 hPa 0,0 l/m 0 min 0 min 17 W/m 12,9 km/h (3 Bft) 100,00 %
15.02.2019 08:32 3,7 C 3,9 C 2,8 C 74 % 1030,6 hPa 0,0 l/m 0 min 0 min 18 W/m 12,9 km/h (3 Bft) 97,83 %
15.02.2019 08:34 3,7 C 3,9 C 2,8 C 74 % 1030,6 hPa 0,0 l/m 0 min 0 min 18 W/m 12,9 km/h (3 Bft) 100,00 %
15.02.2019 08:36 3,8 C 3,9 C 2,8 C 74 % 1030,6 hPa 0,0 l/m 0 min 0 min 18 W/m 16,1 km/h (3 Bft) 100,00 %
15.02.2019 08:38 3,8 C 3,9 C 2,8 C 74 % 1030,7 hPa 0,0 l/m 0 min 0 min 19 W/m 22,5 km/h (4 Bft) 94,29 %
15.02.2019 08:40 3,8 C 3,9 C 2,8 C 74 % 1030,6 hPa 0,0 l/m 0 min 0 min 19 W/m 19,3 km/h (3 Bft) 97,87 %
15.02.2019 08:42 3,9 C 3,9 C 2,8 C 74 % 1030,6 hPa 0,0 l/m 0 min 0 min 19 W/m 16,1 km/h (3 Bft) 97,83 %
15.02.2019 08:44 3,9 C 3,9 C 2,8 C 74 % 1030,7 hPa 0,0 l/m 0 min 0 min 19 W/m 19,3 km/h (3 Bft) 95,74 %
15.02.2019 08:46 4,0 C 3,9 C 2,8 C 74 % 1030,7 hPa 0,0 l/m 0 min 0 min 20 W/m 25,7 km/h (4 Bft) 97,87 %
15.02.2019 08:48 4,1 C 3,9 C 3,3 C 74 % 1030,6 hPa 0,0 l/m 0 min 0 min 21 W/m 19,3 km/h (3 Bft) 95,74 %
15.02.2019 08:50 4,1 C 4,4 C 3,3 C 74 % 1030,6 hPa 0,0 l/m 0 min 0 min 21 W/m 12,9 km/h (3 Bft) 95,74 %
15.02.2019 08:52 4,2 C 4,4 C 3,3 C 74 % 1030,6 hPa 0,0 l/m 0 min 0 min 21 W/m 16,1 km/h (3 Bft) 97,87 %
15.02.2019 08:54 4,2 C 4,4 C 3,3 C 74 % 1030,6 hPa 0,0 l/m 0 min 0 min 21 W/m 19,3 km/h (3 Bft) 97,83 %
15.02.2019 08:56 4,3 C 4,4 C 3,3 C 74 % 1030,5 hPa 0,0 l/m 0 min 0 min 23 W/m 22,5 km/h (4 Bft) 97,87 %
15.02.2019 08:58 4,3 C 4,4 C 3,3 C 74 % 1030,6 hPa 0,0 l/m 0 min 0 min 23 W/m 22,5 km/h (4 Bft) 97,87 %
15.02.2019 09:00 4,4 C 4,4 C 3,3 C 73 % 1030,6 hPa 0,0 l/m 0 min 0 min 23 W/m 22,5 km/h (4 Bft) 95,74 %
15.02.2019 09:02 4,4 C 4,4 C 3,3 C 73 % 1030,5 hPa 0,0 l/m 0 min 0 min 23 W/m 19,3 km/h (3 Bft) 97,87 %
15.02.2019 09:04 4,5 C 4,4 C 3,3 C 73 % 1030,6 hPa 0,0 l/m 0 min 0 min 25 W/m 16,1 km/h (3 Bft) 97,87 %
15.02.2019 09:06 4,5 C 4,4 C 3,3 C 73 % 1030,5 hPa 0,0 l/m 0 min 0 min 25 W/m 16,1 km/h (3 Bft) 98,28 %
15.02.2019 09:08 4,6 C 4,4 C 3,3 C 73 % 1030,5 hPa 0,0 l/m 0 min 0 min 25 W/m 16,1 km/h (3 Bft) 97,14 %
15.02.2019 09:10 4,6 C 4,4 C 3,9 C 73 % 1030,5 hPa 0,0 l/m 0 min 0 min 25 W/m 16,1 km/h (3 Bft) 97,87 %
15.02.2019 09:12 4,7 C 5,0 C 3,9 C 73 % 1030,4 hPa 0,0 l/m 0 min 0 min 26 W/m 16,1 km/h (3 Bft) 97,87 %
15.02.2019 09:14 4,7 C 5,0 C 3,9 C 73 % 1030,5 hPa 0,0 l/m 0 min 0 min 26 W/m 12,9 km/h (3 Bft) 95,74 %
15.02.2019 09:16 4,8 C 5,0 C 3,9 C 73 % 1030,5 hPa 0,0 l/m 0 min 0 min 26 W/m 12,9 km/h (3 Bft) 97,87 %
15.02.2019 09:18 4,8 C 5,0 C 3,9 C 73 % 1030,5 hPa 0,0 l/m 0 min 0 min 26 W/m 12,9 km/h (3 Bft) 95,65 %
15.02.2019 09:20 4,8 C 5,0 C 3,9 C 73 % 1030,5 hPa 0,0 l/m 0 min 0 min 28 W/m 12,9 km/h (3 Bft) 97,87 %
15.02.2019 09:22 4,9 C 5,0 C 3,9 C 73 % 1030,5 hPa 0,0 l/m 0 min 0 min 28 W/m 12,9 km/h (3 Bft) 93,62 %
15.02.2019 09:24 4,9 C 5,0 C 3,9 C 73 % 1030,5 hPa 0,0 l/m 0 min 0 min 28 W/m 12,9 km/h (3 Bft) 95,74 %
15.02.2019 09:26 5,0 C 5,6 C 3,9 C 73 % 1030,4 hPa 0,0 l/m 0 min 0 min 54 W/m 19,3 km/h (3 Bft) 93,62 %
15.02.2019 09:28 5,1 C 7,2 C 4,4 C 73 % 1030,5 hPa 0,0 l/m 2 min 0 min 114 W/m 22,5 km/h (4 Bft) 97,87 %
15.02.2019 09:30 5,1 C 8,9 C 4,4 C 73 % 1030,4 hPa 0,0 l/m 2 min 0 min 221 W/m 22,5 km/h (4 Bft) 97,83 %
15.02.2019 09:32 5,2 C 9,4 C 4,4 C 73 % 1030,4 hPa 0,0 l/m 2 min 0 min 227 W/m 12,9 km/h (3 Bft) 97,87 %
15.02.2019 09:34 5,4 C 9,4 C 4,4 C 73 % 1030,4 hPa 0,0 l/m 2 min 0 min 232 W/m 19,3 km/h (3 Bft) 93,62 %
15.02.2019 09:36 5,5 C 9,4 C 4,4 C 73 % 1030,4 hPa 0,0 l/m 2 min 0 min 237 W/m 25,7 km/h (4 Bft) 98,31 %
15.02.2019 09:38 5,7 C 9,4 C 5,0 C 72 % 1030,4 hPa 0,0 l/m 2 min 0 min 243 W/m 22,5 km/h (4 Bft) 100,00 %
15.02.2019 09:40 5,9 C 10,0 C 5,0 C 72 % 1030,3 hPa 0,0 l/m 2 min 0 min 248 W/m 16,1 km/h (3 Bft) 100,00 %
15.02.2019 09:42 6,1 C 10,0 C 5,0 C 71 % 1030,3 hPa 0,0 l/m 2 min 0 min 252 W/m 19,3 km/h (3 Bft) 97,87 %
15.02.2019 09:44 6,2 C 10,0 C 5,6 C 71 % 1030,3 hPa 0,0 l/m 2 min 0 min 256 W/m 29,0 km/h (5 Bft) 97,87 %
15.02.2019 09:46 6,4 C 10,0 C 5,6 C 70 % 1030,3 hPa 0,0 l/m 2 min 0 min 258 W/m 19,3 km/h (3 Bft) 95,74 %
15.02.2019 09:48 6,6 C 10,6 C 6,1 C 70 % 1030,2 hPa 0,0 l/m 2 min 0 min 265 W/m 22,5 km/h (4 Bft) 100,00 %
15.02.2019 09:50 6,8 C 10,6 C 6,1 C 69 % 1030,2 hPa 0,0 l/m 2 min 0 min 271 W/m 22,5 km/h (4 Bft) 100,00 %
15.02.2019 09:52 6,9 C 10,6 C 6,1 C 68 % 1030,2 hPa 0,0 l/m 2 min 0 min 274 W/m 25,7 km/h (4 Bft) 93,48 %
15.02.2019 09:54 7,1 C 10,6 C 7,2 C 68 % 1030,2 hPa 0,0 l/m 2 min 0 min 279 W/m 29,0 km/h (5 Bft) 97,87 %
15.02.2019 09:56 7,3 C 10,6 C 8,3 C 68 % 1030,2 hPa 0,0 l/m 2 min 0 min 284 W/m 29,0 km/h (5 Bft) 93,62 %
15.02.2019 09:58 7,4 C 11,1 C 9,4 C 67 % 1030,2 hPa 0,0 l/m 2 min 0 min 288 W/m 22,5 km/h (4 Bft) 97,87 %
15.02.2019 10:00 7,5 C 11,1 C 9,4 C 67 % 1030,2 hPa 0,0 l/m 2 min 0 min 293 W/m 22,5 km/h (4 Bft) 95,74 %
15.02.2019 10:02 7,6 C 11,1 C 10,0 C 67 % 1030,2 hPa 0,0 l/m 2 min 0 min 297 W/m 19,3 km/h (3 Bft) 95,74 %
15.02.2019 10:04 7,7 C 11,1 C 10,0 C 66 % 1030,3 hPa 0,0 l/m 2 min 0 min 301 W/m 22,5 km/h (4 Bft) 97,83 %
15.02.2019 10:06 7,8 C 11,7 C 9,4 C 66 % 1030,2 hPa 0,0 l/m 2 min 0 min 306 W/m 19,3 km/h (3 Bft) 97,87 %
15.02.2019 10:08 7,9 C 11,7 C 8,9 C 66 % 1030,3 hPa 0,0 l/m 2 min 0 min 311 W/m 16,1 km/h (3 Bft) 97,87 %
15.02.2019 10:10 8,1 C 11,7 C 8,3 C 66 % 1030,3 hPa 0,0 l/m 2 min 0 min 315 W/m 22,5 km/h (4 Bft) 97,87 %
15.02.2019 10:12 8,2 C 11,7 C 7,8 C 65 % 1030,3 hPa 0,0 l/m 2 min 0 min 319 W/m 25,7 km/h (4 Bft) 97,87 %
15.02.2019 10:14 8,3 C 11,7 C 7,2 C 65 % 1030,3 hPa 0,0 l/m 2 min 0 min 323 W/m 29,0 km/h (5 Bft) 97,87 %
15.02.2019 10:16 8,4 C 11,1 C 7,2 C 64 % 1030,2 hPa 0,0 l/m 2 min 0 min 327 W/m 25,7 km/h (4 Bft) 95,65 %
15.02.2019 10:18 8,4 C 11,7 C 7,2 C 64 % 1030,2 hPa 0,0 l/m 2 min 0 min 331 W/m 25,7 km/h (4 Bft) 91,49 %
15.02.2019 10:20 8,5 C 11,7 C 7,2 C 64 % 1030,2 hPa 0,0 l/m 2 min 0 min 336 W/m 32,2 km/h (5 Bft) 95,74 %
15.02.2019 10:22 8,6 C 11,7 C 7,2 C 64 % 1030,1 hPa 0,0 l/m 2 min 0 min 340 W/m 22,5 km/h (4 Bft) 95,74 %
15.02.2019 10:24 8,7 C 12,2 C 7,8 C 63 % 1030,1 hPa 0,0 l/m 2 min 0 min 343 W/m 29,0 km/h (5 Bft) 94,00 %
15.02.2019 10:26 8,7 C 12,2 C 7,8 C 63 % 1030,2 hPa 0,0 l/m 2 min 0 min 348 W/m 29,0 km/h (5 Bft) 95,65 %
15.02.2019 10:28 8,8 C 12,2 C 7,8 C 63 % 1030,2 hPa 0,0 l/m 2 min 0 min 352 W/m 25,7 km/h (4 Bft) 93,62 %
15.02.2019 10:30 8,9 C 11,7 C 7,8 C 63 % 1030,1 hPa 0,0 l/m 2 min 0 min 356 W/m 29,0 km/h (5 Bft) 95,74 %
15.02.2019 10:32 9,0 C 12,2 C 7,8 C 63 % 1030,1 hPa 0,0 l/m 2 min 0 min 360 W/m 25,7 km/h (4 Bft) 95,74 %
15.02.2019 10:34 9,0 C 12,2 C 7,8 C 63 % 1030,1 hPa 0,0 l/m 2 min 0 min 363 W/m 22,5 km/h (4 Bft) 95,74 %
15.02.2019 10:36 9,1 C 12,8 C 7,8 C 63 % 1030,0 hPa 0,0 l/m 2 min 0 min 367 W/m 25,7 km/h (4 Bft) 95,74 %
15.02.2019 10:38 9,1 C 13,3 C 7,8 C 63 % 1030,1 hPa 0,0 l/m 2 min 0 min 371 W/m 29,0 km/h (5 Bft) 95,65 %
15.02.2019 10:40 9,2 C 12,2 C 7,8 C 62 % 1030,0 hPa 0,0 l/m 2 min 0 min 375 W/m 22,5 km/h (4 Bft) 95,74 %
15.02.2019 10:42 9,2 C 12,8 C 7,8 C 62 % 1030,2 hPa 0,0 l/m 2 min 0 min 378 W/m 25,7 km/h (4 Bft) 97,87 %
15.02.2019 10:44 9,3 C 12,8 C 7,8 C 62 % 1030,0 hPa 0,0 l/m 2 min 0 min 381 W/m 25,7 km/h (4 Bft) 95,74 %
15.02.2019 10:46 9,3 C 12,8 C 7,8 C 62 % 1030,0 hPa 0,0 l/m 2 min 0 min 386 W/m 29,0 km/h (5 Bft) 89,36 %
15.02.2019 10:48 9,4 C 12,8 C 8,3 C 62 % 1029,9 hPa 0,0 l/m 2 min 0 min 388 W/m 25,7 km/h (4 Bft) 95,74 %
15.02.2019 10:50 9,5 C 13,3 C 8,3 C 62 % 1030,0 hPa 0,0 l/m 2 min 0 min 392 W/m 22,5 km/h (4 Bft) 93,48 %
15.02.2019 10:52 9,6 C 13,3 C 8,3 C 61 % 1030,0 hPa 0,0 l/m 2 min 0 min 395 W/m 25,7 km/h (4 Bft) 93,62 %
15.02.2019 10:54 9,6 C 13,3 C 8,3 C 61 % 1030,0 hPa 0,0 l/m 2 min 0 min 398 W/m 25,7 km/h (4 Bft) 93,62 %
15.02.2019 10:56 9,7 C 12,8 C 8,3 C 61 % 1029,9 hPa 0,0 l/m 2 min 0 min 403 W/m 32,2 km/h (5 Bft) 93,62 %
15.02.2019 10:58 9,8 C 12,8 C 8,3 C 61 % 1029,9 hPa 0,0 l/m 2 min 0 min 407 W/m 29,0 km/h (5 Bft) 93,62 %
15.02.2019 11:00 9,8 C 13,9 C 8,9 C 61 % 1029,8 hPa 0,0 l/m 2 min 0 min 409 W/m 22,5 km/h (4 Bft) 89,36 %
15.02.2019 11:02 9,9 C 13,3 C 8,3 C 61 % 1029,8 hPa 0,0 l/m 2 min 0 min 411 W/m 19,3 km/h (3 Bft) 93,48 %
15.02.2019 11:04 9,9 C 13,3 C 8,3 C 61 % 1029,9 hPa 0,0 l/m 2 min 0 min 416 W/m 25,7 km/h (4 Bft) 93,62 %
15.02.2019 11:06 10,0 C 13,9 C 8,3 C 61 % 1029,9 hPa 0,0 l/m 2 min 0 min 418 W/m 25,7 km/h (4 Bft) 93,62 %
15.02.2019 11:08 10,0 C 13,9 C 8,9 C 61 % 1029,9 hPa 0,0 l/m 2 min 0 min 422 W/m 29,0 km/h (5 Bft) 93,62 %
15.02.2019 11:10 10,1 C 13,3 C 8,9 C 61 % 1029,8 hPa 0,0 l/m 2 min 0 min 424 W/m 29,0 km/h (5 Bft) 95,74 %
15.02.2019 11:12 10,2 C 13,9 C 8,9 C 61 % 1029,9 hPa 0,0 l/m 2 min 0 min 427 W/m 19,3 km/h (3 Bft) 95,65 %
15.02.2019 11:14 10,2 C 13,3 C 8,9 C 60 % 1029,8 hPa 0,0 l/m 2 min 0 min 415 W/m 22,5 km/h (4 Bft) 95,74 %
15.02.2019 11:16 10,3 C 12,2 C 8,9 C 60 % 1029,9 hPa 0,0 l/m 2 min 0 min 392 W/m 25,7 km/h (4 Bft) 91,49 %
15.02.2019 11:18 10,3 C 12,2 C 8,9 C 60 % 1029,9 hPa 0,0 l/m 2 min 0 min 431 W/m 22,5 km/h (4 Bft) 93,62 %
15.02.2019 11:20 10,4 C 12,8 C 8,9 C 60 % 1029,9 hPa 0,0 l/m 2 min 0 min 430 W/m 38,6 km/h (5 Bft) 95,74 %
15.02.2019 11:22 10,4 C 13,9 C 8,9 C 60 % 1029,8 hPa 0,0 l/m 2 min 0 min 425 W/m 25,7 km/h (4 Bft) 95,74 %
15.02.2019 11:24 10,4 C 14,4 C 9,4 C 60 % 1029,9 hPa 0,0 l/m 2 min 0 min 443 W/m 22,5 km/h (4 Bft) 91,30 %
15.02.2019 11:26 10,5 C 14,4 C 9,4 C 60 % 1029,9 hPa 0,0 l/m 2 min 0 min 445 W/m 29,0 km/h (5 Bft) 95,74 %
15.02.2019 11:28 10,6 C 13,9 C 9,4 C 60 % 1029,9 hPa 0,0 l/m 2 min 0 min 448 W/m 22,5 km/h (4 Bft) 95,74 %
15.02.2019 11:30 10,6 C 14,4 C 9,4 C 60 % 1029,9 hPa 0,0 l/m 2 min 0 min 450 W/m 29,0 km/h (5 Bft) 91,49 %
15.02.2019 11:32 10,7 C 15,0 C 9,4 C 60 % 1029,9 hPa 0,0 l/m 2 min 0 min 454 W/m 19,3 km/h (3 Bft) 95,74 %
15.02.2019 11:34 10,8 C 14,4 C 9,4 C 59 % 1029,8 hPa 0,0 l/m 2 min 0 min 455 W/m 35,4 km/h (5 Bft) 93,62 %
15.02.2019 11:36 10,8 C 13,9 C 9,4 C 59 % 1029,8 hPa 0,0 l/m 2 min 0 min 456 W/m 25,7 km/h (4 Bft) 93,48 %
15.02.2019 11:38 10,9 C 13,9 C 9,4 C 59 % 1029,9 hPa 0,0 l/m 2 min 0 min 459 W/m 25,7 km/h (4 Bft) 89,36 %
15.02.2019 11:40 10,9 C 15,0 C 10,0 C 59 % 1029,8 hPa 0,0 l/m 2 min 0 min 461 W/m 19,3 km/h (3 Bft) 97,87 %
15.02.2019 11:42 11,0 C 15,6 C 10,0 C 60 % 1029,8 hPa 0,0 l/m 2 min 0 min 462 W/m 16,1 km/h (3 Bft) 97,87 %
15.02.2019 11:44 11,1 C 16,1 C 10,0 C 59 % 1029,8 hPa 0,0 l/m 2 min 0 min 464 W/m 19,3 km/h (3 Bft) 97,87 %
15.02.2019 11:46 11,2 C 16,1 C 10,0 C 59 % 1029,8 hPa 0,0 l/m 2 min 0 min 467 W/m 22,5 km/h (4 Bft) 97,87 %
15.02.2019 11:48 11,3 C 16,7 C 10,0 C 59 % 1029,8 hPa 0,0 l/m 2 min 0 min 469 W/m 16,1 km/h (3 Bft) 95,65 %
15.02.2019 11:50 11,4 C 16,1 C 10,0 C 58 % 1029,8 hPa 0,0 l/m 2 min 0 min 471 W/m 29,0 km/h (5 Bft) 97,87 %
15.02.2019 11:52 11,5 C 15,6 C 10,6 C 58 % 1029,7 hPa 0,0 l/m 2 min 0 min 473 W/m 25,7 km/h (4 Bft) 97,87 %
15.02.2019 11:54 11,6 C 16,1 C 10,6 C 58 % 1029,7 hPa 0,0 l/m 2 min 0 min 475 W/m 22,5 km/h (4 Bft) 95,74 %
15.02.2019 11:56 11,7 C 16,1 C 11,1 C 58 % 1029,7 hPa 0,0 l/m 2 min 0 min 476 W/m 19,3 km/h (3 Bft) 95,74 %
15.02.2019 11:58 11,8 C 16,1 C 12,2 C 58 % 1029,8 hPa 0,0 l/m 2 min 0 min 477 W/m 19,3 km/h (3 Bft) 97,87 %
15.02.2019 12:00 11,9 C 16,7 C 12,2 C 58 % 1029,7 hPa 0,0 l/m 2 min 0 min 479 W/m 22,5 km/h (4 Bft) 95,65 %
15.02.2019 12:02 11,9 C 16,7 C 11,7 C 58 % 1029,7 hPa 0,0 l/m 2 min 0 min 482 W/m 12,9 km/h (3 Bft) 95,74 %
15.02.2019 12:04 12,1 C 16,7 C 11,1 C 58 % 1029,7 hPa 0,0 l/m 2 min 0 min 482 W/m 25,7 km/h (4 Bft) 97,87 %
15.02.2019 12:08 12,3 C 17,2 C 11,1 C 57 % 1029,7 hPa 0,0 l/m 4 min 0 min 484 W/m 22,5 km/h (4 Bft) 96,81 %
15.02.2019 12:10 12,4 C 17,2 C 11,1 C 57 % 1029,7 hPa 0,0 l/m 2 min 0 min 487 W/m 25,7 km/h (4 Bft) 97,87 %
15.02.2019 12:12 12,4 C 17,2 C 11,1 C 57 % 1029,7 hPa 0,0 l/m 2 min 0 min 488 W/m 16,1 km/h (3 Bft) 95,65 %
15.02.2019 12:14 12,6 C 17,2 C 11,1 C 57 % 1029,7 hPa 0,0 l/m 2 min 0 min 489 W/m 16,1 km/h (3 Bft) 97,87 %
15.02.2019 12:16 12,6 C 17,2 C 11,7 C 57 % 1029,7 hPa 0,0 l/m 2 min 0 min 490 W/m 19,3 km/h (3 Bft) 97,87 %
15.02.2019 12:18 12,7 C 17,8 C 11,7 C 57 % 1029,7 hPa 0,0 l/m 2 min 0 min 490 W/m 16,1 km/h (3 Bft) 97,87 %
15.02.2019 12:20 12,8 C 17,8 C 11,7 C 56 % 1029,7 hPa 0,0 l/m 2 min 0 min 491 W/m 12,9 km/h (3 Bft) 97,87 %
15.02.2019 12:22 12,9 C 17,8 C 11,7 C 56 % 1029,7 hPa 0,0 l/m 2 min 0 min 492 W/m 19,3 km/h (3 Bft) 97,87 %
15.02.2019 12:24 13,0 C 17,2 C 11,7 C 56 % 1029,6 hPa 0,0 l/m 2 min 0 min 493 W/m 22,5 km/h (4 Bft) 97,83 %
15.02.2019 12:26 13,1 C 16,7 C 11,7 C 55 % 1029,6 hPa 0,0 l/m 2 min 0 min 494 W/m 25,7 km/h (4 Bft) 100,00 %
15.02.2019 12:28 13,1 C 16,7 C 12,2 C 55 % 1029,5 hPa 0,0 l/m 2 min 0 min 495 W/m 22,5 km/h (4 Bft) 97,87 %
15.02.2019 12:30 13,1 C 17,8 C 12,2 C 55 % 1029,5 hPa 0,0 l/m 2 min 0 min 496 W/m 16,1 km/h (3 Bft) 97,87 %
15.02.2019 12:32 13,2 C 17,2 C 12,8 C 55 % 1029,5 hPa 0,0 l/m 2 min 0 min 496 W/m 25,7 km/h (4 Bft) 93,62 %
15.02.2019 12:34 13,2 C 17,2 C 13,9 C 55 % 1029,4 hPa 0,0 l/m 2 min 0 min 496 W/m 25,7 km/h (4 Bft) 97,83 %
15.02.2019 12:36 13,3 C 17,8 C 16,1 C 55 % 1029,4 hPa 0,0 l/m 2 min 0 min 497 W/m 22,5 km/h (4 Bft) 95,74 %
15.02.2019 12:38 13,4 C 17,8 C 17,8 C 55 % 1029,4 hPa 0,0 l/m 2 min 0 min 497 W/m 19,3 km/h (3 Bft) 97,87 %
15.02.2019 12:40 13,4 C 17,8 C 18,9 C 55 % 1029,4 hPa 0,0 l/m 2 min 0 min 498 W/m 22,5 km/h (4 Bft) 100,00 %
15.02.2019 12:42 13,4 C 18,3 C 18,9 C 55 % 1029,4 hPa 0,0 l/m 2 min 0 min 498 W/m 16,1 km/h (3 Bft) 100,00 %
15.02.2019 12:44 13,5 C 17,8 C 19,4 C 54 % 1029,3 hPa 0,0 l/m 2 min 0 min 499 W/m 19,3 km/h (3 Bft) 100,00 %
15.02.2019 12:46 13,6 C 17,8 C 19,4 C 54 % 1029,3 hPa 0,0 l/m 2 min 0 min 499 W/m 16,1 km/h (3 Bft) 100,00 %
15.02.2019 12:48 13,7 C 18,9 C 20,6 C 54 % 1029,2 hPa 0,0 l/m 2 min 0 min 499 W/m 16,1 km/h (3 Bft) 100,00 %
15.02.2019 12:50 13,7 C 18,3 C 20,0 C 54 % 1029,2 hPa 0,0 l/m 2 min 0 min 499 W/m 25,7 km/h (4 Bft) 100,00 %
15.02.2019 12:52 13,8 C 17,8 C 20,0 C 54 % 1029,2 hPa 0,0 l/m 2 min 0 min 499 W/m 19,3 km/h (3 Bft) 97,87 %
15.02.2019 12:54 13,9 C 17,8 C 20,0 C 53 % 1029,1 hPa 0,0 l/m 2 min 0 min 499 W/m 25,7 km/h (4 Bft) 97,87 %
15.02.2019 12:56 13,9 C 17,8 C 19,4 C 53 % 1029,1 hPa 0,0 l/m 2 min 0 min 499 W/m 25,7 km/h (4 Bft) 100,00 %
15.02.2019 12:58 13,9 C 17,8 C 18,9 C 53 % 1029,1 hPa 0,0 l/m 2 min 0 min 499 W/m 22,5 km/h (4 Bft) 100,00 %
15.02.2019 13:00 14,0 C 17,8 C 18,9 C 53 % 1029,0 hPa 0,0 l/m 2 min 0 min 499 W/m 22,5 km/h (4 Bft) 97,87 %
15.02.2019 13:02 14,1 C 17,8 C 18,9 C 53 % 1029,0 hPa 0,0 l/m 2 min 0 min 497 W/m 25,7 km/h (4 Bft) 100,00 %
15.02.2019 13:04 14,2 C 18,3 C 18,9 C 53 % 1029,0 hPa 0,0 l/m 2 min 0 min 498 W/m 22,5 km/h (4 Bft) 100,00 %
15.02.2019 13:06 14,2 C 18,3 C 18,9 C 53 % 1028,9 hPa 0,0 l/m 2 min 0 min 497 W/m 22,5 km/h (4 Bft) 100,00 %
15.02.2019 13:08 14,2 C 18,3 C 17,8 C 53 % 1029,0 hPa 0,0 l/m 2 min 0 min 497 W/m 25,7 km/h (4 Bft) 97,87 %
15.02.2019 13:10 14,2 C 18,9 C 17,2 C 53 % 1028,9 hPa 0,0 l/m 2 min 0 min 497 W/m 19,3 km/h (3 Bft) 97,83 %
15.02.2019 13:12 14,3 C 18,9 C 16,7 C 53 % 1028,9 hPa 0,0 l/m 2 min 0 min 497 W/m 19,3 km/h (3 Bft) 97,87 %
15.02.2019 13:14 14,3 C 18,3 C 16,1 C 53 % 1028,8 hPa 0,0 l/m 2 min 0 min 496 W/m 25,7 km/h (4 Bft) 97,87 %
15.02.2019 13:16 14,4 C 18,9 C 16,7 C 52 % 1028,9 hPa 0,0 l/m 2 min 0 min 495 W/m 19,3 km/h (3 Bft) 100,00 %
15.02.2019 13:18 14,4 C 18,9 C 16,7 C 53 % 1028,8 hPa 0,0 l/m 2 min 0 min 493 W/m 22,5 km/h (4 Bft) 97,87 %
15.02.2019 13:20 14,5 C 19,4 C 16,1 C 54 % 1028,8 hPa 0,0 l/m 2 min 0 min 493 W/m 16,1 km/h (3 Bft) 97,87 %
15.02.2019 13:22 14,6 C 20,0 C 15,6 C 53 % 1028,7 hPa 0,0 l/m 2 min 0 min 492 W/m 29,0 km/h (5 Bft) 93,48 %
15.02.2019 13:24 14,7 C 18,9 C 15,0 C 52 % 1028,7 hPa 0,0 l/m 2 min 0 min 492 W/m 25,7 km/h (4 Bft) 93,62 %
15.02.2019 13:26 14,7 C 19,4 C 15,6 C 52 % 1028,7 hPa 0,0 l/m 2 min 0 min 491 W/m 16,1 km/h (3 Bft) 93,62 %
15.02.2019 13:28 14,8 C 19,4 C 16,1 C 52 % 1028,6 hPa 0,0 l/m 2 min 0 min 491 W/m 16,1 km/h (3 Bft) 95,74 %
15.02.2019 13:30 14,9 C 20,0 C 15,6 C 52 % 1028,6 hPa 0,0 l/m 2 min 0 min 489 W/m 16,1 km/h (3 Bft) 95,74 %
15.02.2019 13:32 14,9 C 20,0 C 15,0 C 52 % 1028,6 hPa 0,0 l/m 2 min 0 min 488 W/m 9,7 km/h (2 Bft) 95,74 %
15.02.2019 13:34 15,1 C 19,4 C 15,0 C 52 % 1028,6 hPa 0,0 l/m 2 min 0 min 488 W/m 22,5 km/h (4 Bft) 95,65 %
15.02.2019 13:36 15,1 C 19,4 C 15,6 C 51 % 1028,5 hPa 0,0 l/m 2 min 0 min 486 W/m 25,7 km/h (4 Bft) 93,62 %
15.02.2019 13:38 15,2 C 19,4 C 15,0 C 51 % 1028,4 hPa 0,0 l/m 2 min 0 min 485 W/m 16,1 km/h (3 Bft) 95,83 %
15.02.2019 13:40 15,2 C 20,0 C 14,4 C 51 % 1028,5 hPa 0,0 l/m 2 min 0 min 484 W/m 19,3 km/h (3 Bft) 93,62 %
15.02.2019 13:42 15,3 C 19,4 C 13,9 C 51 % 1028,4 hPa 0,0 l/m 2 min 0 min 482 W/m 19,3 km/h (3 Bft) 97,87 %
15.02.2019 13:44 15,3 C 18,9 C 13,9 C 51 % 1028,4 hPa 0,0 l/m 2 min 0 min 480 W/m 22,5 km/h (4 Bft) 95,74 %
15.02.2019 13:46 15,3 C 19,4 C 14,4 C 51 % 1028,4 hPa 0,0 l/m 2 min 0 min 479 W/m 25,7 km/h (4 Bft) 93,48 %
15.02.2019 13:48 15,4 C 19,4 C 13,9 C 51 % 1028,3 hPa 0,0 l/m 2 min 0 min 476 W/m 25,7 km/h (4 Bft) 95,74 %
15.02.2019 13:50 15,4 C 18,9 C 14,4 C 51 % 1028,3 hPa 0,0 l/m 2 min 0 min 476 W/m 22,5 km/h (4 Bft) 95,74 %
15.02.2019 13:52 15,4 C 20,0 C 14,4 C 51 % 1028,3 hPa 0,0 l/m 2 min 0 min 474 W/m 16,1 km/h (3 Bft) 95,74 %
15.02.2019 13:54 15,5 C 20,6 C 14,4 C 51 % 1028,3 hPa 0,0 l/m 2 min 0 min 472 W/m 16,1 km/h (3 Bft) 95,74 %
15.02.2019 13:56 15,6 C 20,0 C 14,4 C 51 % 1028,4 hPa 0,0 l/m 2 min 0 min 471 W/m 16,1 km/h (3 Bft) 97,83 %
15.02.2019 13:58 15,6 C 20,6 C 14,4 C 51 % 1028,3 hPa 0,0 l/m 2 min 0 min 469 W/m 19,3 km/h (3 Bft) 97,87 %
15.02.2019 14:00 15,7 C 20,0 C 14,4 C 51 % 1028,3 hPa 0,0 l/m 2 min 0 min 466 W/m 16,1 km/h (3 Bft) 95,74 %
15.02.2019 14:02 15,7 C 19,4 C 14,4 C 50 % 1028,3 hPa 0,0 l/m 2 min 0 min 464 W/m 25,7 km/h (4 Bft) 95,74 %
15.02.2019 14:04 15,7 C 19,4 C 14,4 C 50 % 1028,2 hPa 0,0 l/m 2 min 0 min 462 W/m 19,3 km/h (3 Bft) 100,00 %
15.02.2019 14:06 15,7 C 19,4 C 14,4 C 50 % 1028,2 hPa 0,0 l/m 2 min 0 min 460 W/m 19,3 km/h (3 Bft) 97,87 %
15.02.2019 14:08 15,7 C 19,4 C 14,4 C 51 % 1028,2 hPa 0,0 l/m 2 min 0 min 458 W/m 16,1 km/h (3 Bft) 100,00 %
15.02.2019 14:10 15,7 C 19,4 C 14,4 C 50 % 1028,2 hPa 0,0 l/m 2 min 0 min 455 W/m 22,5 km/h (4 Bft) 100,00 %
15.02.2019 14:12 15,7 C 19,4 C 14,4 C 50 % 1028,2 hPa 0,0 l/m 2 min 0 min 454 W/m 16,1 km/h (3 Bft) 97,87 %
15.02.2019 14:14 15,8 C 20,0 C 14,4 C 50 % 1028,1 hPa 0,0 l/m 2 min 0 min 451 W/m 22,5 km/h (4 Bft) 100,00 %
15.02.2019 14:16 15,8 C 20,0 C 14,4 C 50 % 1028,2 hPa 0,0 l/m 2 min 0 min 449 W/m 19,3 km/h (3 Bft) 97,87 %
15.02.2019 14:18 15,8 C 20,0 C 14,4 C 50 % 1028,1 hPa 0,0 l/m 2 min 0 min 446 W/m 16,1 km/h (3 Bft) 97,56 %
15.02.2019 14:20 15,8 C 19,4 C 14,4 C 50 % 1028,0 hPa 0,0 l/m 2 min 0 min 444 W/m 22,5 km/h (4 Bft) 97,87 %
15.02.2019 14:22 15,8 C 19,4 C 15,0 C 50 % 1028,0 hPa 0,0 l/m 2 min 0 min 441 W/m 22,5 km/h (4 Bft) 97,87 %
15.02.2019 14:24 15,8 C 19,4 C 14,4 C 50 % 1027,9 hPa 0,0 l/m 2 min 0 min 439 W/m 16,1 km/h (3 Bft) 93,48 %
15.02.2019 14:26 15,8 C 19,4 C 14,4 C 49 % 1027,9 hPa 0,0 l/m 2 min 0 min 436 W/m 22,5 km/h (4 Bft) 100,00 %
15.02.2019 14:28 15,9 C 19,4 C 14,4 C 50 % 1027,8 hPa 0,0 l/m 2 min 0 min 433 W/m 22,5 km/h (4 Bft) 93,62 %
15.02.2019 14:30 15,9 C 20,0 C 15,0 C 50 % 1027,8 hPa 0,0 l/m 2 min 0 min 431 W/m 19,3 km/h (3 Bft) 95,74 %
15.02.2019 14:32 15,9 C 20,0 C 15,6 C 50 % 1027,7 hPa 0,0 l/m 2 min 0 min 428 W/m 12,9 km/h (3 Bft) 97,87 %
15.02.2019 14:34 15,9 C 20,0 C 16,7 C 50 % 1027,7 hPa 0,0 l/m 2 min 0 min 425 W/m 16,1 km/h (3 Bft) 96,36 %
15.02.2019 14:36 16,0 C 20,6 C 16,7 C 50 % 1027,6 hPa 0,0 l/m 2 min 0 min 422 W/m 16,1 km/h (3 Bft) 93,62 %
15.02.2019 14:38 16,0 C 20,0 C 15,6 C 50 % 1027,6 hPa 0,0 l/m 2 min 0 min 419 W/m 22,5 km/h (4 Bft) 100,00 %
15.02.2019 14:40 16,1 C 20,0 C 15,0 C 50 % 1027,6 hPa 0,0 l/m 2 min 0 min 416 W/m 19,3 km/h (3 Bft) 97,87 %
15.02.2019 14:42 16,1 C 20,0 C 15,0 C 50 % 1027,6 hPa 0,0 l/m 2 min 0 min 412 W/m 12,9 km/h (3 Bft) 93,48 %
15.02.2019 14:44 16,1 C 20,0 C 15,0 C 49 % 1027,6 hPa 0,0 l/m 2 min 0 min 410 W/m 19,3 km/h (3 Bft) 100,00 %
15.02.2019 14:46 16,2 C 20,0 C 15,0 C 50 % 1027,6 hPa 0,0 l/m 2 min 0 min 405 W/m 19,3 km/h (3 Bft) 100,00 %
15.02.2019 14:48 16,2 C 20,0 C 15,0 C 50 % 1027,5 hPa 0,0 l/m 2 min 0 min 403 W/m 19,3 km/h (3 Bft) 95,65 %
15.02.2019 14:50 16,2 C 20,0 C 15,0 C 49 % 1027,5 hPa 0,0 l/m 2 min 0 min 399 W/m 16,1 km/h (3 Bft) 100,00 %
15.02.2019 14:52 16,2 C 19,4 C 15,0 C 49 % 1027,5 hPa 0,0 l/m 2 min 0 min 397 W/m 19,3 km/h (3 Bft) 95,74 %
15.02.2019 14:54 16,3 C 19,4 C 15,0 C 49 % 1027,4 hPa 0,0 l/m 2 min 0 min 393 W/m 16,1 km/h (3 Bft) 95,74 %
15.02.2019 14:56 16,3 C 20,0 C 15,0 C 49 % 1027,4 hPa 0,0 l/m 2 min 0 min 389 W/m 19,3 km/h (3 Bft) 100,00 %
15.02.2019 14:58 16,3 C 19,4 C 14,4 C 49 % 1027,4 hPa 0,0 l/m 2 min 0 min 386 W/m 19,3 km/h (3 Bft) 100,00 %
15.02.2019 15:00 16,3 C 19,4 C 14,4 C 49 % 1027,4 hPa 0,0 l/m 2 min 0 min 382 W/m 22,5 km/h (4 Bft) 98,21 %
15.02.2019 15:02 16,3 C 19,4 C 14,4 C 49 % 1027,4 hPa 0,0 l/m 2 min 0 min 379 W/m 16,1 km/h (3 Bft) 97,87 %
15.02.2019 15:04 16,3 C 19,4 C 14,4 C 49 % 1027,4 hPa 0,0 l/m 2 min 0 min 375 W/m 22,5 km/h (4 Bft) 100,00 %
15.02.2019 15:06 16,3 C 19,4 C 14,4 C 50 % 1027,4 hPa 0,0 l/m 2 min 0 min 371 W/m 22,5 km/h (4 Bft) 98,28 %
15.02.2019 15:08 16,3 C 20,0 C 14,4 C 50 % 1027,4 hPa 0,0 l/m 2 min 0 min 367 W/m 9,7 km/h (2 Bft) 100,00 %
15.02.2019 15:10 16,3 C 20,0 C 14,4 C 49 % 1027,4 hPa 0,0 l/m 2 min 0 min 365 W/m 16,1 km/h (3 Bft) 97,14 %
15.02.2019 15:12 16,3 C 19,4 C 14,4 C 50 % 1027,4 hPa 0,0 l/m 2 min 0 min 361 W/m 16,1 km/h (3 Bft) 97,87 %
15.02.2019 15:14 16,4 C 20,0 C 14,4 C 50 % 1027,3 hPa 0,0 l/m 2 min 0 min 356 W/m 16,1 km/h (3 Bft) 97,87 %
15.02.2019 15:16 16,4 C 19,4 C 14,4 C 50 % 1027,3 hPa 0,0 l/m 2 min 0 min 353 W/m 19,3 km/h (3 Bft) 97,87 %
15.02.2019 15:18 16,4 C 19,4 C 14,4 C 50 % 1027,3 hPa 0,0 l/m 2 min 0 min 348 W/m 22,5 km/h (4 Bft) 96,36 %
15.02.2019 15:20 16,4 C 20,0 C 14,4 C 50 % 1027,3 hPa 0,0 l/m 2 min 0 min 345 W/m 12,9 km/h (3 Bft) 95,74 %
15.02.2019 15:22 16,4 C 20,6 C 14,4 C 50 % 1027,2 hPa 0,0 l/m 2 min 0 min 340 W/m 9,7 km/h (2 Bft) 97,37 %
15.02.2019 15:24 16,4 C 21,7 C 14,4 C 50 % 1027,2 hPa 0,0 l/m 2 min 0 min 336 W/m 12,9 km/h (3 Bft) 97,87 %
15.02.2019 15:26 16,4 C 21,1 C 14,4 C 50 % 1027,2 hPa 0,0 l/m 2 min 0 min 332 W/m 16,1 km/h (3 Bft) 97,87 %
15.02.2019 15:28 16,5 C 20,0 C 14,4 C 49 % 1027,2 hPa 0,0 l/m 2 min 0 min 328 W/m 16,1 km/h (3 Bft) 96,43 %
15.02.2019 15:30 16,5 C 20,0 C 14,4 C 49 % 1027,1 hPa 0,0 l/m 2 min 0 min 324 W/m 9,7 km/h (2 Bft) 97,83 %
15.02.2019 15:32 16,6 C 20,0 C 14,4 C 49 % 1027,1 hPa 0,0 l/m 2 min 0 min 320 W/m 16,1 km/h (3 Bft) 95,74 %
15.02.2019 15:34 16,6 C 20,0 C 14,4 C 49 % 1027,1 hPa 0,0 l/m 2 min 0 min 315 W/m 12,9 km/h (3 Bft) 97,87 %
15.02.2019 15:36 16,6 C 20,0 C 14,4 C 49 % 1027,2 hPa 0,0 l/m 2 min 0 min 310 W/m 16,1 km/h (3 Bft) 96,00 %
15.02.2019 15:38 16,6 C 20,0 C 14,4 C 49 % 1027,1 hPa 0,0 l/m 2 min 0 min 306 W/m 9,7 km/h (2 Bft) 95,74 %
15.02.2019 15:40 16,6 C 20,0 C 14,4 C 49 % 1027,0 hPa 0,0 l/m 2 min 0 min 301 W/m 9,7 km/h (2 Bft) 97,14 %
15.02.2019 15:42 16,6 C 20,0 C 14,4 C 50 % 1027,0 hPa 0,0 l/m 2 min 0 min 297 W/m 9,7 km/h (2 Bft) 97,87 %
15.02.2019 15:44 16,6 C 20,0 C 14,4 C 49 % 1027,0 hPa 0,0 l/m 2 min 0 min 293 W/m 9,7 km/h (2 Bft) 95,74 %
15.02.2019 15:46 16,6 C 19,4 C 14,4 C 49 % 1026,9 hPa 0,0 l/m 2 min 0 min 289 W/m 16,1 km/h (3 Bft) 97,83 %
15.02.2019 15:48 16,6 C 18,9 C 14,4 C 49 % 1026,9 hPa 0,0 l/m 2 min 0 min 284 W/m 12,9 km/h (3 Bft) 95,74 %
15.02.2019 15:50 16,6 C 19,4 C 14,4 C 49 % 1026,9 hPa 0,0 l/m 2 min 0 min 279 W/m 12,9 km/h (3 Bft) 97,87 %
15.02.2019 15:52 16,6 C 19,4 C 14,4 C 49 % 1026,9 hPa 0,0 l/m 2 min 0 min 275 W/m 16,1 km/h (3 Bft) 95,74 %
15.02.2019 15:54 16,6 C 18,9 C 14,4 C 49 % 1026,8 hPa 0,0 l/m 2 min 0 min 269 W/m 9,7 km/h (2 Bft) 91,49 %
15.02.2019 15:56 16,6 C 18,9 C 14,4 C 49 % 1026,8 hPa 0,0 l/m 2 min 0 min 265 W/m 12,9 km/h (3 Bft) 93,62 %
15.02.2019 15:58 16,6 C 18,9 C 13,9 C 49 % 1026,8 hPa 0,0 l/m 2 min 0 min 260 W/m 12,9 km/h (3 Bft) 92,73 %
15.02.2019 16:00 16,6 C 19,4 C 13,9 C 49 % 1026,8 hPa 0,0 l/m 2 min 0 min 255 W/m 12,9 km/h (3 Bft) 89,47 %
15.02.2019 16:02 16,5 C 19,4 C 13,9 C 50 % 1026,8 hPa 0,0 l/m 2 min 0 min 249 W/m 16,1 km/h (3 Bft) 95,74 %
15.02.2019 16:04 16,5 C 18,9 C 13,9 C 50 % 1026,8 hPa 0,0 l/m 2 min 0 min 243 W/m 9,7 km/h (2 Bft) 91,49 %
15.02.2019 16:06 16,5 C 18,9 C 13,9 C 49 % 1026,8 hPa 0,0 l/m 2 min 0 min 237 W/m 12,9 km/h (3 Bft) 91,49 %
15.02.2019 16:08 16,5 C 18,9 C 13,9 C 50 % 1026,8 hPa 0,0 l/m 2 min 0 min 231 W/m 12,9 km/h (3 Bft) 95,74 %
15.02.2019 16:10 16,5 C 18,9 C 13,9 C 50 % 1026,7 hPa 0,0 l/m 2 min 0 min 225 W/m 12,9 km/h (3 Bft) 93,48 %
15.02.2019 16:12 16,4 C 18,9 C 13,9 C 50 % 1026,7 hPa 0,0 l/m 2 min 0 min 219 W/m 12,9 km/h (3 Bft) 91,49 %
15.02.2019 16:14 16,4 C 19,4 C 13,9 C 50 % 1026,6 hPa 0,0 l/m 2 min 0 min 214 W/m 9,7 km/h (2 Bft) 80,85 %
15.02.2019 16:16 16,4 C 18,9 C 13,9 C 50 % 1026,5 hPa 0,0 l/m 2 min 0 min 207 W/m 12,9 km/h (3 Bft) 91,49 %
15.02.2019 16:18 16,4 C 18,9 C 13,9 C 49 % 1026,4 hPa 0,0 l/m 2 min 0 min 203 W/m 16,1 km/h (3 Bft) 85,11 %
15.02.2019 16:20 16,4 C 17,2 C 13,9 C 49 % 1026,5 hPa 0,0 l/m 2 min 0 min 142 W/m 12,9 km/h (3 Bft) 90,91 %
15.02.2019 16:22 16,3 C 16,1 C 13,9 C 50 % 1026,5 hPa 0,0 l/m 0 min 0 min 45 W/m 12,9 km/h (3 Bft) 86,84 %
15.02.2019 16:24 16,3 C 15,6 C 13,9 C 50 % 1026,5 hPa 0,0 l/m 0 min 0 min 33 W/m 9,7 km/h (2 Bft) 72,34 %
15.02.2019 16:26 16,2 C 15,0 C 13,3 C 50 % 1026,4 hPa 0,0 l/m 0 min 0 min 33 W/m 12,9 km/h (3 Bft) 65,96 %
15.02.2019 16:28 16,2 C 15,0 C 13,3 C 51 % 1026,4 hPa 0,0 l/m 0 min 0 min 32 W/m 6,4 km/h (2 Bft) 72,34 %
15.02.2019 16:30 16,1 C 15,0 C 13,3 C 51 % 1026,3 hPa 0,0 l/m 0 min 0 min 31 W/m 6,4 km/h (2 Bft) 63,83 %
15.02.2019 16:32 16,1 C 15,0 C 13,3 C 51 % 1026,3 hPa 0,0 l/m 0 min 0 min 30 W/m 9,7 km/h (2 Bft) 76,36 %
15.02.2019 16:34 16,0 C 15,0 C 13,3 C 51 % 1026,3 hPa 0,0 l/m 0 min 0 min 30 W/m 9,7 km/h (2 Bft) 70,21 %
15.02.2019 16:36 15,9 C 15,0 C 13,3 C 51 % 1026,3 hPa 0,0 l/m 0 min 0 min 29 W/m 6,4 km/h (2 Bft) 74,00 %
15.02.2019 16:38 15,9 C 15,0 C 13,3 C 51 % 1026,3 hPa 0,0 l/m 0 min 0 min 28 W/m 12,9 km/h (3 Bft) 69,57 %
15.02.2019 16:40 15,8 C 15,0 C 13,3 C 52 % 1026,3 hPa 0,0 l/m 0 min 0 min 28 W/m 9,7 km/h (2 Bft) 61,11 %
15.02.2019 16:42 15,8 C 15,0 C 13,3 C 52 % 1026,2 hPa 0,0 l/m 0 min 0 min 28 W/m 9,7 km/h (2 Bft) 84,78 %
15.02.2019 16:44 15,8 C 15,0 C 13,3 C 52 % 1026,2 hPa 0,0 l/m 0 min 0 min 28 W/m 9,7 km/h (2 Bft) 70,21 %
15.02.2019 16:46 15,7 C 15,0 C 12,8 C 52 % 1026,2 hPa 0,0 l/m 0 min 0 min 26 W/m 16,1 km/h (3 Bft) 87,23 %
15.02.2019 16:48 15,7 C 15,0 C 12,8 C 52 % 1026,2 hPa 0,0 l/m 0 min 0 min 25 W/m 6,4 km/h (2 Bft) 91,49 %
15.02.2019 16:50 15,6 C 14,4 C 12,8 C 52 % 1026,1 hPa 0,0 l/m 0 min 0 min 25 W/m 9,7 km/h (2 Bft) 95,74 %
15.02.2019 16:52 15,6 C 14,4 C 12,8 C 52 % 1026,1 hPa 0,0 l/m 0 min 0 min 24 W/m 12,9 km/h (3 Bft) 85,11 %
15.02.2019 16:54 15,5 C 14,4 C 12,8 C 52 % 1026,1 hPa 0,0 l/m 0 min 0 min 23 W/m 9,7 km/h (2 Bft) 89,36 %
15.02.2019 16:56 15,4 C 14,4 C 12,8 C 53 % 1026,1 hPa 0,0 l/m 0 min 0 min 23 W/m 6,4 km/h (2 Bft) 87,23 %
15.02.2019 16:58 15,4 C 14,4 C 12,8 C 53 % 1026,1 hPa 0,0 l/m 0 min 0 min 22 W/m 9,7 km/h (2 Bft) 84,78 %
15.02.2019 17:00 15,4 C 14,4 C 12,8 C 53 % 1026,0 hPa 0,0 l/m 0 min 0 min 21 W/m 9,7 km/h (2 Bft) 87,23 %
15.02.2019 17:02 15,3 C 14,4 C 12,8 C 53 % 1026,0 hPa 0,0 l/m 0 min 0 min 21 W/m 9,7 km/h (2 Bft) 87,23 %
15.02.2019 17:04 15,3 C 13,9 C 12,8 C 53 % 1026,1 hPa 0,0 l/m 0 min 0 min 21 W/m 12,9 km/h (3 Bft) 91,49 %
15.02.2019 17:06 15,2 C 13,9 C 12,8 C 53 % 1026,0 hPa 0,0 l/m 0 min 0 min 19 W/m 12,9 km/h (3 Bft) 87,23 %
15.02.2019 17:08 15,2 C 13,9 C 12,8 C 53 % 1026,0 hPa 0,0 l/m 0 min 0 min 19 W/m 6,4 km/h (2 Bft) 96,15 %
15.02.2019 17:10 15,1 C 13,9 C 12,2 C 54 % 1026,0 hPa 0,0 l/m 0 min 0 min 18 W/m 6,4 km/h (2 Bft) 95,12 %
15.02.2019 17:12 15,1 C 13,9 C 12,2 C 53 % 1026,0 hPa 0,0 l/m 0 min 0 min 18 W/m 6,4 km/h (2 Bft) 97,87 %
15.02.2019 17:14 15,1 C 13,9 C 12,2 C 53 % 1025,9 hPa 0,0 l/m 0 min 0 min 18 W/m 6,4 km/h (2 Bft) 100,00 %
15.02.2019 17:16 15,0 C 13,9 C 11,7 C 53 % 1025,9 hPa 0,0 l/m 0 min 0 min 16 W/m 6,4 km/h (2 Bft) 100,00 %
15.02.2019 17:18 14,9 C 13,9 C 11,7 C 53 % 1025,9 hPa 0,0 l/m 0 min 0 min 16 W/m 6,4 km/h (2 Bft) 100,00 %
15.02.2019 17:20 14,9 C 13,9 C 11,7 C 53 % 1025,9 hPa 0,0 l/m 0 min 0 min 15 W/m 6,4 km/h (2 Bft) 100,00 %
15.02.2019 17:22 14,9 C 13,9 C 11,1 C 54 % 1025,9 hPa 0,0 l/m 0 min 0 min 14 W/m 9,7 km/h (2 Bft) 94,74 %
15.02.2019 17:24 14,8 C 13,3 C 11,7 C 53 % 1025,8 hPa 0,0 l/m 0 min 0 min 14 W/m 6,4 km/h (2 Bft) 100,00 %
15.02.2019 17:26 14,7 C 13,3 C 11,7 C 53 % 1025,9 hPa 0,0 l/m 0 min 0 min 12 W/m 6,4 km/h (2 Bft) 100,00 %
15.02.2019 17:28 14,7 C 13,3 C 11,7 C 53 % 1025,9 hPa 0,0 l/m 0 min 0 min 12 W/m 9,7 km/h (2 Bft) 93,62 %
15.02.2019 17:30 14,6 C 13,3 C 11,1 C 53 % 1025,9 hPa 0,0 l/m 0 min 0 min 12 W/m 6,4 km/h (2 Bft) 97,87 %
15.02.2019 17:32 14,6 C 13,3 C 10,6 C 54 % 1025,9 hPa 0,0 l/m 0 min 0 min 11 W/m 3,2 km/h (1 Bft) 98,18 %
15.02.2019 17:34 14,6 C 12,8 C 10,0 C 54 % 1025,9 hPa 0,0 l/m 0 min 0 min 11 W/m 6,4 km/h (2 Bft) 97,87 %
15.02.2019 17:36 14,4 C 12,8 C 10,0 C 54 % 1025,9 hPa 0,0 l/m 0 min 0 min 10 W/m 6,4 km/h (2 Bft) 98,00 %
15.02.2019 17:38 14,4 C 12,8 C 9,4 C 54 % 1025,9 hPa 0,0 l/m 0 min 0 min 9 W/m 3,2 km/h (1 Bft) 93,48 %
15.02.2019 17:40 14,4 C 12,8 C 9,4 C 54 % 1025,9 hPa 0,0 l/m 0 min 0 min 8 W/m 3,2 km/h (1 Bft) 97,14 %
15.02.2019 17:42 14,3 C 12,2 C 8,9 C 54 % 1025,9 hPa 0,0 l/m 0 min 0 min 7 W/m 6,4 km/h (2 Bft) 97,92 %
15.02.2019 17:44 14,2 C 12,2 C 8,9 C 54 % 1025,8 hPa 0,0 l/m 0 min 0 min 7 W/m 6,4 km/h (2 Bft) 97,83 %
15.02.2019 17:46 14,2 C 12,2 C 8,3 C 55 % 1025,8 hPa 0,0 l/m 0 min 0 min 6 W/m 3,2 km/h (1 Bft) 97,87 %
15.02.2019 17:48 14,2 C 12,2 C 8,3 C 55 % 1025,8 hPa 0,0 l/m 0 min 0 min 5 W/m 3,2 km/h (1 Bft) 98,21 %
15.02.2019 17:50 14,2 C 12,2 C 8,3 C 55 % 1025,8 hPa 0,0 l/m 0 min 0 min 5 W/m 6,4 km/h (2 Bft) 94,74 %
15.02.2019 17:52 14,1 C 11,7 C 7,8 C 55 % 1025,7 hPa 0,0 l/m 0 min 0 min 3 W/m 3,2 km/h (1 Bft) 78,72 %
15.02.2019 17:54 14,0 C 11,7 C 7,8 C 55 % 1025,8 hPa 0,0 l/m 0 min 0 min 0 W/m 9,7 km/h (2 Bft) 78,72 %
15.02.2019 17:56 13,9 C 12,2 C 7,8 C 55 % 1025,8 hPa 0,0 l/m 0 min 0 min 0 W/m 6,4 km/h (2 Bft) 89,13 %
15.02.2019 17:58 13,8 C 11,7 C 7,8 C 55 % 1025,8 hPa 0,0 l/m 0 min 0 min 0 W/m 3,2 km/h (1 Bft) 95,74 %
15.02.2019 18:00 13,7 C 11,7 C 7,2 C 55 % 1025,7 hPa 0,0 l/m 0 min 0 min 0 W/m 3,2 km/h (1 Bft) 97,87 %
15.02.2019 18:02 13,6 C 11,1 C 7,2 C 56 % 1025,8 hPa 0,0 l/m 0 min 0 min 0 W/m 6,4 km/h (2 Bft) 87,27 %
15.02.2019 18:04 13,6 C 11,1 C 7,2 C 56 % 1025,8 hPa 0,0 l/m 0 min 0 min 0 W/m 3,2 km/h (1 Bft) 95,74 %
15.02.2019 18:08 13,3 C 11,1 C 6,7 C 56 % 1025,7 hPa 0,0 l/m 0 min 0 min 0 W/m 6,4 km/h (2 Bft) 97,65 %
15.02.2019 18:10 13,2 C 11,1 C 6,7 C 56 % 1025,8 hPa 0,0 l/m 0 min 0 min 0 W/m 6,4 km/h (2 Bft) 97,87 %
15.02.2019 18:12 13,2 C 11,7 C 7,2 C 56 % 1025,8 hPa 0,0 l/m 0 min 0 min 0 W/m 6,4 km/h (2 Bft) 100,00 %
15.02.2019 18:14 13,1 C 11,7 C 7,8 C 56 % 1025,8 hPa 0,0 l/m 0 min 0 min 0 W/m 6,4 km/h (2 Bft) 100,00 %
15.02.2019 18:16 13,0 C 11,7 C 7,8 C 57 % 1025,7 hPa 0,0 l/m 0 min 0 min 0 W/m 6,4 km/h (2 Bft) 100,00 %
15.02.2019 18:18 12,9 C 11,7 C 8,3 C 57 % 1025,7 hPa 0,0 l/m 0 min 0 min 0 W/m 6,4 km/h (2 Bft) 100,00 %
15.02.2019 18:20 12,8 C 11,7 C 8,3 C 56 % 1025,7 hPa 0,0 l/m 0 min 0 min 0 W/m 6,4 km/h (2 Bft) 100,00 %
15.02.2019 18:22 12,8 C 11,7 C 8,3 C 57 % 1025,7 hPa 0,0 l/m 0 min 0 min 0 W/m 6,4 km/h (2 Bft) 87,23 %
15.02.2019 18:24 12,7 C 11,7 C 8,3 C 57 % 1025,7 hPa 0,0 l/m 0 min 0 min 0 W/m 6,4 km/h (2 Bft) 97,87 %
15.02.2019 18:26 12,7 C 11,7 C 7,8 C 57 % 1025,6 hPa 0,0 l/m 0 min 0 min 0 W/m 6,4 km/h (2 Bft) 100,00 %
15.02.2019 18:28 12,6 C 11,1 C 7,8 C 57 % 1025,7 hPa 0,0 l/m 0 min 0 min 0 W/m 3,2 km/h (1 Bft) 97,87 %
15.02.2019 18:30 12,6 C 11,1 C 7,8 C 57 % 1025,7 hPa 0,0 l/m 0 min 0 min 0 W/m 6,4 km/h (2 Bft) 100,00 %
15.02.2019 18:32 12,6 C 11,1 C 7,8 C 57 % 1025,7 hPa 0,0 l/m 0 min 0 min 0 W/m 6,4 km/h (2 Bft) 100,00 %
15.02.2019 18:34 12,5 C 11,1 C 7,2 C 57 % 1025,7 hPa 0,0 l/m 0 min 0 min 0 W/m 3,2 km/h (1 Bft) 100,00 %
15.02.2019 18:36 12,4 C 11,1 C 7,2 C 57 % 1025,7 hPa 0,0 l/m 0 min 0 min 0 W/m 6,4 km/h (2 Bft) 95,74 %
15.02.2019 18:38 12,4 C 10,6 C 6,7 C 57 % 1025,7 hPa 0,0 l/m 0 min 0 min 0 W/m 6,4 km/h (2 Bft) 97,87 %
15.02.2019 18:40 12,3 C 11,1 C 7,2 C 57 % 1025,7 hPa 0,0 l/m 0 min 0 min 0 W/m 6,4 km/h (2 Bft) 89,36 %
15.02.2019 18:42 12,3 C 11,7 C 8,3 C 57 % 1025,7 hPa 0,0 l/m 0 min 0 min 0 W/m 12,9 km/h (3 Bft) 97,83 %
15.02.2019 18:44 12,2 C 11,7 C 8,3 C 57 % 1025,7 hPa 0,0 l/m 0 min 0 min 0 W/m 9,7 km/h (2 Bft) 97,87 %
15.02.2019 18:46 12,2 C 11,7 C 8,9 C 57 % 1025,7 hPa 0,0 l/m 0 min 0 min 0 W/m 9,7 km/h (2 Bft) 97,87 %
15.02.2019 18:48 12,2 C 11,7 C 8,9 C 58 % 1025,7 hPa 0,0 l/m 0 min 0 min 0 W/m 9,7 km/h (2 Bft) 97,87 %
15.02.2019 18:50 12,1 C 11,1 C 9,4 C 58 % 1025,7 hPa 0,0 l/m 0 min 0 min 0 W/m 6,4 km/h (2 Bft) 97,87 %
15.02.2019 18:52 12,1 C 11,1 C 9,4 C 58 % 1025,7 hPa 0,0 l/m 0 min 0 min 0 W/m 16,1 km/h (3 Bft) 97,87 %
15.02.2019 18:54 12,1 C 11,1 C 9,4 C 58 % 1025,7 hPa 0,0 l/m 0 min 0 min 0 W/m 9,7 km/h (2 Bft) 95,65 %
15.02.2019 18:56 12,1 C 11,1 C 9,4 C 58 % 1025,6 hPa 0,0 l/m 0 min 0 min 0 W/m 6,4 km/h (2 Bft) 97,87 %
15.02.2019 18:58 12,0 C 11,1 C 9,4 C 58 % 1025,6 hPa 0,0 l/m 0 min 0 min 0 W/m 9,7 km/h (2 Bft) 95,74 %
15.02.2019 19:00 12,0 C 11,1 C 9,4 C 58 % 1025,6 hPa 0,0 l/m 0 min 0 min 0 W/m 12,9 km/h (3 Bft) 95,74 %
15.02.2019 19:02 11,9 C 11,1 C 9,4 C 58 % 1025,7 hPa 0,0 l/m 0 min 0 min 0 W/m 9,7 km/h (2 Bft) 95,74 %
15.02.2019 19:04 11,9 C 11,1 C 9,4 C 58 % 1025,7 hPa 0,0 l/m 0 min 0 min 0 W/m 12,9 km/h (3 Bft) 97,83 %
15.02.2019 19:06 11,9 C 11,1 C 9,4 C 58 % 1025,7 hPa 0,0 l/m 0 min 0 min 0 W/m 12,9 km/h (3 Bft) 95,74 %
15.02.2019 19:08 11,9 C 11,1 C 10,0 C 58 % 1025,7 hPa 0,0 l/m 0 min 0 min 0 W/m 16,1 km/h (3 Bft) 93,62 %
15.02.2019 19:10 11,9 C 11,1 C 9,4 C 58 % 1025,6 hPa 0,0 l/m 0 min 0 min 0 W/m 12,9 km/h (3 Bft) 91,49 %
15.02.2019 19:12 11,9 C 11,1 C 10,0 C 58 % 1025,6 hPa 0,0 l/m 0 min 0 min 0 W/m 12,9 km/h (3 Bft) 91,49 %
15.02.2019 19:14 11,8 C 11,1 C 10,0 C 58 % 1025,6 hPa 0,0 l/m 0 min 0 min 0 W/m 12,9 km/h (3 Bft) 91,49 %
15.02.2019 19:16 11,8 C 11,1 C 10,0 C 58 % 1025,6 hPa 0,0 l/m 0 min 0 min 0 W/m 12,9 km/h (3 Bft) 89,13 %
15.02.2019 19:18 11,8 C 11,1 C 9,4 C 58 % 1025,7 hPa 0,0 l/m 0 min 0 min 0 W/m 9,7 km/h (2 Bft) 87,23 %
15.02.2019 19:20 11,8 C 11,1 C 9,4 C 58 % 1025,7 hPa 0,0 l/m 0 min 0 min 0 W/m 9,7 km/h (2 Bft) 93,62 %
15.02.2019 19:22 11,8 C 10,6 C 9,4 C 58 % 1025,7 hPa 0,0 l/m 0 min 0 min 0 W/m 12,9 km/h (3 Bft) 89,36 %
15.02.2019 19:24 11,7 C 10,6 C 9,4 C 58 % 1025,7 hPa 0,0 l/m 0 min 0 min 0 W/m 9,7 km/h (2 Bft) 95,74 %
15.02.2019 19:26 11,7 C 10,6 C 9,4 C 59 % 1025,7 hPa 0,0 l/m 0 min 0 min 0 W/m 12,9 km/h (3 Bft) 85,11 %
15.02.2019 19:28 11,7 C 10,6 C 9,4 C 59 % 1025,7 hPa 0,0 l/m 0 min 0 min 0 W/m 9,7 km/h (2 Bft) 89,13 %
15.02.2019 19:30 11,7 C 10,6 C 9,4 C 59 % 1025,6 hPa 0,0 l/m 0 min 0 min 0 W/m 9,7 km/h (2 Bft) 91,49 %
15.02.2019 19:32 11,6 C 10,6 C 9,4 C 59 % 1025,6 hPa 0,0 l/m 0 min 0 min 0 W/m 6,4 km/h (2 Bft) 95,74 %
15.02.2019 19:34 11,6 C 10,0 C 9,4 C 59 % 1025,6 hPa 0,0 l/m 0 min 0 min 0 W/m 9,7 km/h (2 Bft) 93,62 %
15.02.2019 19:36 11,6 C 10,0 C 8,9 C 59 % 1025,6 hPa 0,0 l/m 0 min 0 min 0 W/m 9,7 km/h (2 Bft) 93,62 %
15.02.2019 19:38 11,5 C 10,0 C 8,9 C 59 % 1025,6 hPa 0,0 l/m 0 min 0 min 0 W/m 6,4 km/h (2 Bft) 97,87 %
15.02.2019 19:40 11,4 C 10,6 C 8,9 C 59 % 1025,7 hPa 0,0 l/m 0 min 0 min 0 W/m 9,7 km/h (2 Bft) 91,30 %
15.02.2019 19:42 11,4 C 10,6 C 9,4 C 59 % 1025,6 hPa 0,0 l/m 0 min 0 min 0 W/m 12,9 km/h (3 Bft) 97,87 %
15.02.2019 19:44 11,4 C 10,6 C 9,4 C 59 % 1025,6 hPa 0,0 l/m 0 min 0 min 0 W/m 9,7 km/h (2 Bft) 91,49 %
15.02.2019 19:46 11,3 C 10,6 C 9,4 C 60 % 1025,6 hPa 0,0 l/m 0 min 0 min 0 W/m 9,7 km/h (2 Bft) 95,74 %
15.02.2019 19:48 11,3 C 10,6 C 9,4 C 60 % 1025,6 hPa 0,0 l/m 0 min 0 min 0 W/m 9,7 km/h (2 Bft) 95,74 %
15.02.2019 19:50 11,3 C 10,6 C 9,4 C 60 % 1025,6 hPa 0,0 l/m 0 min 0 min 0 W/m 16,1 km/h (3 Bft) 95,74 %
15.02.2019 19:52 11,2 C 10,6 C 9,4 C 60 % 1025,6 hPa 0,0 l/m 0 min 0 min 0 W/m 12,9 km/h (3 Bft) 91,30 %
15.02.2019 19:54 11,2 C 10,6 C 9,4 C 60 % 1025,6 hPa 0,0 l/m 0 min 0 min 0 W/m 12,9 km/h (3 Bft) 95,74 %
15.02.2019 19:56 11,2 C 10,6 C 8,9 C 60 % 1025,6 hPa 0,0 l/m 0 min 0 min 0 W/m 12,9 km/h (3 Bft) 93,62 %
15.02.2019 19:58 11,2 C 10,6 C 9,4 C 60 % 1025,6 hPa 0,0 l/m 0 min 0 min 0 W/m 16,1 km/h (3 Bft) 93,62 %
15.02.2019 20:00 11,1 C 10,6 C 9,4 C 60 % 1025,5 hPa 0,0 l/m 0 min 0 min 0 W/m 12,9 km/h (3 Bft) 89,36 %
15.02.2019 20:02 11,1 C 10,0 C 8,9 C 61 % 1025,5 hPa 0,0 l/m 0 min 0 min 0 W/m 16,1 km/h (3 Bft) 85,11 %
15.02.2019 20:04 11,1 C 10,0 C 9,4 C 61 % 1025,6 hPa 0,0 l/m 0 min 0 min 0 W/m 12,9 km/h (3 Bft) 89,13 %
15.02.2019 20:06 11,1 C 10,0 C 8,9 C 60 % 1025,5 hPa 0,0 l/m 0 min 0 min 0 W/m 16,1 km/h (3 Bft) 97,87 %
15.02.2019 20:08 11,1 C 10,0 C 8,9 C 60 % 1025,6 hPa 0,0 l/m 0 min 0 min 0 W/m 9,7 km/h (2 Bft) 95,74 %
15.02.2019 20:10 11,0 C 10,0 C 8,9 C 60 % 1025,5 hPa 0,0 l/m 0 min 0 min 0 W/m 12,9 km/h (3 Bft) 87,23 %
15.02.2019 20:12 10,9 C 10,0 C 8,9 C 61 % 1025,5 hPa 0,0 l/m 0 min 0 min 0 W/m 22,5 km/h (4 Bft) 94,00 %
15.02.2019 20:14 10,9 C 10,6 C 9,4 C 60 % 1025,5 hPa 0,0 l/m 0 min 0 min 0 W/m 25,7 km/h (4 Bft) 91,30 %
15.02.2019 20:16 10,9 C 10,0 C 9,4 C 60 % 1025,5 hPa 0,0 l/m 0 min 0 min 0 W/m 12,9 km/h (3 Bft) 95,74 %
15.02.2019 20:18 10,9 C 10,0 C 9,4 C 60 % 1025,5 hPa 0,0 l/m 0 min 0 min 0 W/m 16,1 km/h (3 Bft) 95,74 %
15.02.2019 20:20 10,9 C 10,6 C 9,4 C 60 % 1025,5 hPa 0,0 l/m 0 min 0 min 0 W/m 25,7 km/h (4 Bft) 95,74 %
15.02.2019 20:22 10,9 C 10,6 C 9,4 C 60 % 1025,5 hPa 0,0 l/m 0 min 0 min 0 W/m 22,5 km/h (4 Bft) 93,62 %
15.02.2019 20:24 10,9 C 10,6 C 9,4 C 60 % 1025,5 hPa 0,0 l/m 0 min 0 min 0 W/m 25,7 km/h (4 Bft) 100,00 %
15.02.2019 20:26 10,9 C 10,0 C 9,4 C 61 % 1025,5 hPa 0,0 l/m 0 min 0 min 0 W/m 9,7 km/h (2 Bft) 97,83 %
15.02.2019 20:28 10,9 C 10,0 C 8,9 C 61 % 1025,4 hPa 0,0 l/m 0 min 0 min 0 W/m 12,9 km/h (3 Bft) 100,00 %
15.02.2019 20:30 10,9 C 10,0 C 8,9 C 61 % 1025,5 hPa 0,0 l/m 0 min 0 min 0 W/m 16,1 km/h (3 Bft) 97,87 %
15.02.2019 20:32 10,9 C 10,0 C 8,9 C 61 % 1025,5 hPa 0,0 l/m 0 min 0 min 0 W/m 9,7 km/h (2 Bft) 100,00 %
15.02.2019 20:34 10,8 C 10,0 C 8,9 C 61 % 1025,5 hPa 0,0 l/m 0 min 0 min 0 W/m 25,7 km/h (4 Bft) 95,74 %
15.02.2019 20:36 10,8 C 10,0 C 8,9 C 61 % 1025,4 hPa 0,0 l/m 0 min 0 min 0 W/m 16,1 km/h (3 Bft) 100,00 %
15.02.2019 20:38 10,8 C 10,0 C 8,9 C 61 % 1025,4 hPa 0,0 l/m 0 min 0 min 0 W/m 12,9 km/h (3 Bft) 100,00 %
15.02.2019 20:40 10,8 C 10,0 C 8,9 C 61 % 1025,5 hPa 0,0 l/m 0 min 0 min 0 W/m 22,5 km/h (4 Bft) 97,87 %
15.02.2019 20:42 10,7 C 10,0 C 8,9 C 61 % 1025,4 hPa 0,0 l/m 0 min 0 min 0 W/m 16,1 km/h (3 Bft) 100,00 %
15.02.2019 20:44 10,7 C 9,4 C 8,9 C 61 % 1025,4 hPa 0,0 l/m 0 min 0 min 0 W/m 12,9 km/h (3 Bft) 100,00 %
15.02.2019 20:46 10,7 C 9,4 C 8,9 C 61 % 1025,4 hPa 0,0 l/m 0 min 0 min 0 W/m 12,9 km/h (3 Bft) 100,00 %
15.02.2019 20:48 10,6 C 9,4 C 8,9 C 62 % 1025,4 hPa 0,0 l/m 0 min 0 min 0 W/m 12,9 km/h (3 Bft) 100,00 %
15.02.2019 20:50 10,6 C 9,4 C 8,3 C 62 % 1025,4 hPa 0,0 l/m 0 min 0 min 0 W/m 22,5 km/h (4 Bft) 100,00 %
15.02.2019 20:52 10,6 C 9,4 C 8,3 C 62 % 1025,3 hPa 0,0 l/m 0 min 0 min 0 W/m 12,9 km/h (3 Bft) 100,00 %
15.02.2019 20:54 10,5 C 9,4 C 8,3 C 62 % 1025,3 hPa 0,0 l/m 0 min 0 min 0 W/m 22,5 km/h (4 Bft) 100,00 %
15.02.2019 20:56 10,4 C 9,4 C 8,9 C 62 % 1025,3 hPa 0,0 l/m 0 min 0 min 0 W/m 19,3 km/h (3 Bft) 97,87 %
15.02.2019 20:58 10,4 C 9,4 C 8,9 C 62 % 1025,2 hPa 0,0 l/m 0 min 0 min 0 W/m 12,9 km/h (3 Bft) 97,87 %
15.02.2019 21:00 10,4 C 9,4 C 8,3 C 62 % 1025,3 hPa 0,0 l/m 0 min 0 min 0 W/m 22,5 km/h (4 Bft) 100,00 %
15.02.2019 21:02 10,3 C 9,4 C 8,3 C 62 % 1025,3 hPa 0,0 l/m 0 min 0 min 0 W/m 12,9 km/h (3 Bft) 100,00 %
15.02.2019 21:04 10,3 C 9,4 C 8,3 C 62 % 1025,2 hPa 0,0 l/m 0 min 0 min 0 W/m 16,1 km/h (3 Bft) 97,87 %
15.02.2019 21:06 10,3 C 9,4 C 8,3 C 63 % 1025,2 hPa 0,0 l/m 0 min 0 min 0 W/m 19,3 km/h (3 Bft) 100,00 %
15.02.2019 21:08 10,3 C 9,4 C 8,3 C 62 % 1025,3 hPa 0,0 l/m 0 min 0 min 0 W/m 16,1 km/h (3 Bft) 97,87 %
15.02.2019 21:10 10,3 C 9,4 C 8,3 C 62 % 1025,2 hPa 0,0 l/m 0 min 0 min 0 W/m 22,5 km/h (4 Bft) 100,00 %
15.02.2019 21:12 10,2 C 9,4 C 8,9 C 62 % 1025,3 hPa 0,0 l/m 0 min 0 min 0 W/m 16,1 km/h (3 Bft) 100,00 %
15.02.2019 21:14 10,2 C 9,4 C 8,3 C 62 % 1025,3 hPa 0,0 l/m 0 min 0 min 0 W/m 19,3 km/h (3 Bft) 100,00 %
15.02.2019 21:16 10,2 C 9,4 C 8,3 C 62 % 1025,3 hPa 0,0 l/m 0 min 0 min 0 W/m 16,1 km/h (3 Bft) 97,87 %
15.02.2019 21:18 10,2 C 9,4 C 8,3 C 62 % 1025,3 hPa 0,0 l/m 0 min 0 min 0 W/m 19,3 km/h (3 Bft) 97,87 %
15.02.2019 21:20 10,2 C 9,4 C 8,3 C 62 % 1025,3 hPa 0,0 l/m 0 min 0 min 0 W/m 22,5 km/h (4 Bft) 100,00 %
15.02.2019 21:22 10,2 C 9,4 C 8,3 C 62 % 1025,3 hPa 0,0 l/m 0 min 0 min 0 W/m 12,9 km/h (3 Bft) 100,00 %
15.02.2019 21:24 10,2 C 9,4 C 8,3 C 62 % 1025,3 hPa 0,0 l/m 0 min 0 min 0 W/m 16,1 km/h (3 Bft) 100,00 %
15.02.2019 21:26 10,1 C 9,4 C 8,3 C 62 % 1025,3 hPa 0,0 l/m 0 min 0 min 0 W/m 16,1 km/h (3 Bft) 100,00 %
15.02.2019 21:28 10,1 C 9,4 C 8,3 C 63 % 1025,2 hPa 0,0 l/m 0 min 0 min 0 W/m 12,9 km/h (3 Bft) 100,00 %
15.02.2019 21:30 10,1 C 9,4 C 8,3 C 62 % 1025,2 hPa 0,0 l/m 0 min 0 min 0 W/m 16,1 km/h (3 Bft) 100,00 %
15.02.2019 21:32 10,1 C 9,4 C 8,3 C 63 % 1025,2 hPa 0,0 l/m 0 min 0 min 0 W/m 12,9 km/h (3 Bft) 97,87 %
15.02.2019 21:34 10,1 C 9,4 C 8,3 C 62 % 1025,3 hPa 0,0 l/m 0 min 0 min 0 W/m 16,1 km/h (3 Bft) 95,74 %
15.02.2019 21:36 10,1 C 9,4 C 8,3 C 62 % 1025,3 hPa 0,0 l/m 0 min 0 min 0 W/m 16,1 km/h (3 Bft) 95,65 %
15.02.2019 21:38 10,1 C 9,4 C 8,3 C 62 % 1025,3 hPa 0,0 l/m 0 min 0 min 0 W/m 22,5 km/h (4 Bft) 93,62 %
15.02.2019 21:40 10,1 C 9,4 C 8,3 C 63 % 1025,2 hPa 0,0 l/m 0 min 0 min 0 W/m 12,9 km/h (3 Bft) 89,36 %
15.02.2019 21:42 10,0 C 9,4 C 8,3 C 63 % 1025,2 hPa 0,0 l/m 0 min 0 min 0 W/m 19,3 km/h (3 Bft) 89,36 %
15.02.2019 21:44 10,0 C 9,4 C 8,3 C 63 % 1025,3 hPa 0,0 l/m 0 min 0 min 0 W/m 12,9 km/h (3 Bft) 89,36 %
15.02.2019 21:46 10,0 C 9,4 C 8,3 C 63 % 1025,3 hPa 0,0 l/m 0 min 0 min 0 W/m 9,7 km/h (2 Bft) 86,96 %
15.02.2019 21:48 10,0 C 9,4 C 8,3 C 63 % 1025,3 hPa 0,0 l/m 0 min 0 min 0 W/m 16,1 km/h (3 Bft) 87,23 %
15.02.2019 21:50 9,9 C 8,9 C 8,3 C 63 % 1025,3 hPa 0,0 l/m 0 min 0 min 0 W/m 16,1 km/h (3 Bft) 95,74 %
15.02.2019 21:52 9,9 C 9,4 C 8,3 C 63 % 1025,3 hPa 0,0 l/m 0 min 0 min 0 W/m 16,1 km/h (3 Bft) 89,36 %
15.02.2019 21:54 9,9 C 9,4 C 8,3 C 63 % 1025,3 hPa 0,0 l/m 0 min 0 min 0 W/m 19,3 km/h (3 Bft) 91,49 %
15.02.2019 21:56 9,9 C 9,4 C 8,3 C 63 % 1025,3 hPa 0,0 l/m 0 min 0 min 0 W/m 22,5 km/h (4 Bft) 89,36 %
15.02.2019 21:58 9,9 C 9,4 C 8,3 C 63 % 1025,3 hPa 0,0 l/m 0 min 0 min 0 W/m 25,7 km/h (4 Bft) 82,61 %
15.02.2019 22:00 9,9 C 8,9 C 8,3 C 63 % 1025,3 hPa 0,0 l/m 0 min 0 min 0 W/m 16,1 km/h (3 Bft) 87,23 %
15.02.2019 22:02 9,8 C 8,9 C 8,3 C 63 % 1025,3 hPa 0,0 l/m 0 min 0 min 0 W/m 22,5 km/h (4 Bft) 93,62 %
15.02.2019 22:04 9,8 C 8,9 C 8,3 C 63 % 1025,2 hPa 0,0 l/m 0 min 0 min 0 W/m 22,5 km/h (4 Bft) 91,49 %
15.02.2019 22:06 9,8 C 8,9 C 8,3 C 63 % 1025,2 hPa 0,0 l/m 0 min 0 min 0 W/m 19,3 km/h (3 Bft) 91,49 %
15.02.2019 22:08 9,8 C 8,9 C 8,3 C 63 % 1025,2 hPa 0,0 l/m 0 min 0 min 0 W/m 19,3 km/h (3 Bft) 93,62 %
15.02.2019 22:10 9,8 C 8,9 C 8,3 C 63 % 1025,3 hPa 0,0 l/m 0 min 0 min 0 W/m 19,3 km/h (3 Bft) 85,11 %
15.02.2019 22:12 9,8 C 8,9 C 8,3 C 63 % 1025,3 hPa 0,0 l/m 0 min 0 min 0 W/m 19,3 km/h (3 Bft) 93,48 %
15.02.2019 22:14 9,8 C 8,9 C 7,8 C 63 % 1025,3 hPa 0,0 l/m 0 min 0 min 0 W/m 19,3 km/h (3 Bft) 91,49 %
15.02.2019 22:16 9,7 C 8,9 C 7,8 C 63 % 1025,2 hPa 0,0 l/m 0 min 0 min 0 W/m 16,1 km/h (3 Bft) 82,98 %
15.02.2019 22:18 9,7 C 8,9 C 7,8 C 63 % 1025,2 hPa 0,0 l/m 0 min 0 min 0 W/m 16,1 km/h (3 Bft) 91,49 %
15.02.2019 22:20 9,7 C 8,9 C 7,8 C 63 % 1025,2 hPa 0,0 l/m 0 min 0 min 0 W/m 19,3 km/h (3 Bft) 89,36 %
15.02.2019 22:22 9,6 C 8,9 C 7,8 C 63 % 1025,3 hPa 0,0 l/m 0 min 0 min 0 W/m 12,9 km/h (3 Bft) 84,78 %
15.02.2019 22:24 9,6 C 8,3 C 7,8 C 63 % 1025,3 hPa 0,0 l/m 0 min 0 min 0 W/m 19,3 km/h (3 Bft) 87,23 %
15.02.2019 22:26 9,6 C 8,3 C 7,8 C 63 % 1025,2 hPa 0,0 l/m 0 min 0 min 0 W/m 12,9 km/h (3 Bft) 95,74 %
15.02.2019 22:28 9,5 C 8,3 C 7,8 C 63 % 1025,3 hPa 0,0 l/m 0 min 0 min 0 W/m 16,1 km/h (3 Bft) 95,74 %
15.02.2019 22:30 9,5 C 8,3 C 7,8 C 63 % 1025,3 hPa 0,0 l/m 0 min 0 min 0 W/m 19,3 km/h (3 Bft) 93,62 %
15.02.2019 22:32 9,4 C 8,3 C 7,2 C 64 % 1025,3 hPa 0,0 l/m 0 min 0 min 0 W/m 12,9 km/h (3 Bft) 91,49 %
15.02.2019 22:34 9,4 C 8,3 C 7,2 C 64 % 1025,2 hPa 0,0 l/m 0 min 0 min 0 W/m 12,9 km/h (3 Bft) 95,65 %
15.02.2019 22:36 9,4 C 8,3 C 7,8 C 64 % 1025,2 hPa 0,0 l/m 0 min 0 min 0 W/m 19,3 km/h (3 Bft) 91,49 %
15.02.2019 22:38 9,3 C 8,3 C 7,2 C 64 % 1025,2 hPa 0,0 l/m 0 min 0 min 0 W/m 12,9 km/h (3 Bft) 95,74 %
15.02.2019 22:40 9,3 C 8,3 C 7,2 C 64 % 1025,3 hPa 0,0 l/m 0 min 0 min 0 W/m 9,7 km/h (2 Bft) 97,87 %
15.02.2019 22:42 9,2 C 8,3 C 7,2 C 64 % 1025,2 hPa 0,0 l/m 0 min 0 min 0 W/m 19,3 km/h (3 Bft) 93,62 %
15.02.2019 22:44 9,2 C 8,3 C 7,2 C 64 % 1025,2 hPa 0,0 l/m 0 min 0 min 0 W/m 12,9 km/h (3 Bft) 100,00 %
15.02.2019 22:46 9,2 C 8,3 C 7,2 C 64 % 1025,2 hPa 0,0 l/m 0 min 0 min 0 W/m 22,5 km/h (4 Bft) 100,00 %
15.02.2019 22:48 9,1 C 8,3 C 7,2 C 64 % 1025,3 hPa 0,0 l/m 0 min 0 min 0 W/m 16,1 km/h (3 Bft) 97,87 %
15.02.2019 22:50 9,1 C 7,8 C 7,2 C 65 % 1025,2 hPa 0,0 l/m 0 min 0 min 0 W/m 9,7 km/h (2 Bft) 97,87 %
15.02.2019 22:52 9,0 C 7,8 C 7,2 C 65 % 1025,3 hPa 0,0 l/m 0 min 0 min 0 W/m 16,1 km/h (3 Bft) 91,49 %
15.02.2019 22:54 9,0 C 7,8 C 7,2 C 65 % 1025,2 hPa 0,0 l/m 0 min 0 min 0 W/m 16,1 km/h (3 Bft) 93,62 %
15.02.2019 22:56 8,9 C 7,8 C 7,2 C 65 % 1025,2 hPa 0,0 l/m 0 min 0 min 0 W/m 16,1 km/h (3 Bft) 95,74 %
15.02.2019 22:58 8,9 C 7,8 C 6,7 C 65 % 1025,2 hPa 0,0 l/m 0 min 0 min 0 W/m 9,7 km/h (2 Bft) 100,00 %
15.02.2019 23:00 8,8 C 7,8 C 6,7 C 65 % 1025,2 hPa 0,0 l/m 0 min 0 min 0 W/m 16,1 km/h (3 Bft) 100,00 %
15.02.2019 23:02 8,8 C 7,8 C 6,7 C 65 % 1025,2 hPa 0,0 l/m 0 min 0 min 0 W/m 12,9 km/h (3 Bft) 100,00 %
15.02.2019 23:04 8,8 C 7,8 C 6,7 C 66 % 1025,2 hPa 0,0 l/m 0 min 0 min 0 W/m 12,9 km/h (3 Bft) 97,87 %
15.02.2019 23:06 8,7 C 7,8 C 6,7 C 65 % 1025,1 hPa 0,0 l/m 0 min 0 min 0 W/m 9,7 km/h (2 Bft) 93,62 %
15.02.2019 23:08 8,7 C 7,8 C 6,7 C 66 % 1025,1 hPa 0,0 l/m 0 min 0 min 0 W/m 12,9 km/h (3 Bft) 97,83 %
15.02.2019 23:10 8,6 C 7,8 C 6,7 C 66 % 1025,1 hPa 0,0 l/m 0 min 0 min 0 W/m 12,9 km/h (3 Bft) 97,87 %
15.02.2019 23:12 8,6 C 7,8 C 6,7 C 66 % 1025,1 hPa 0,0 l/m 0 min 0 min 0 W/m 12,9 km/h (3 Bft) 97,87 %
15.02.2019 23:14 8,6 C 7,8 C 6,7 C 66 % 1025,0 hPa 0,0 l/m 0 min 0 min 0 W/m 9,7 km/h (2 Bft) 93,62 %
15.02.2019 23:16 8,5 C 7,8 C 6,7 C 66 % 1025,1 hPa 0,0 l/m 0 min 0 min 0 W/m 12,9 km/h (3 Bft) 89,36 %
15.02.2019 23:18 8,4 C 7,2 C 6,7 C 66 % 1025,1 hPa 0,0 l/m 0 min 0 min 0 W/m 9,7 km/h (2 Bft) 97,87 %
15.02.2019 23:20 8,4 C 7,2 C 6,7 C 66 % 1025,1 hPa 0,0 l/m 0 min 0 min 0 W/m 16,1 km/h (3 Bft) 93,62 %
15.02.2019 23:22 8,4 C 7,8 C 6,7 C 66 % 1025,0 hPa 0,0 l/m 0 min 0 min 0 W/m 16,1 km/h (3 Bft) 95,65 %
15.02.2019 23:24 8,4 C 7,8 C 6,7 C 66 % 1025,0 hPa 0,0 l/m 0 min 0 min 0 W/m 16,1 km/h (3 Bft) 93,62 %
15.02.2019 23:26 8,4 C 7,8 C 6,7 C 67 % 1025,0 hPa 0,0 l/m 0 min 0 min 0 W/m 16,1 km/h (3 Bft) 93,62 %
15.02.2019 23:28 8,3 C 7,8 C 6,7 C 67 % 1025,0 hPa 0,0 l/m 0 min 0 min 0 W/m 22,5 km/h (4 Bft) 95,74 %
15.02.2019 23:30 8,3 C 7,8 C 6,7 C 67 % 1025,0 hPa 0,0 l/m 0 min 0 min 0 W/m 19,3 km/h (3 Bft) 93,62 %
15.02.2019 23:32 8,3 C 7,8 C 6,7 C 67 % 1024,9 hPa 0,0 l/m 0 min 0 min 0 W/m 12,9 km/h (3 Bft) 95,65 %
15.02.2019 23:34 8,3 C 7,2 C 6,7 C 67 % 1025,0 hPa 0,0 l/m 0 min 0 min 0 W/m 12,9 km/h (3 Bft) 97,87 %
15.02.2019 23:36 8,3 C 7,2 C 6,7 C 67 % 1025,0 hPa 0,0 l/m 0 min 0 min 0 W/m 12,9 km/h (3 Bft) 95,74 %
15.02.2019 23:38 8,2 C 7,2 C 6,7 C 67 % 1025,0 hPa 0,0 l/m 0 min 0 min 0 W/m 19,3 km/h (3 Bft) 97,87 %
15.02.2019 23:40 8,2 C 7,2 C 6,7 C 67 % 1025,0 hPa 0,0 l/m 0 min 0 min 0 W/m 16,1 km/h (3 Bft) 97,87 %
15.02.2019 23:42 8,2 C 7,2 C 6,7 C 68 % 1024,9 hPa 0,0 l/m 0 min 0 min 0 W/m 16,1 km/h (3 Bft) 97,87 %
15.02.2019 23:44 8,2 C 7,2 C 6,7 C 68 % 1025,0 hPa 0,0 l/m 0 min 0 min 0 W/m 16,1 km/h (3 Bft) 97,83 %
15.02.2019 23:46 8,1 C 7,2 C 6,1 C 68 % 1024,9 hPa 0,0 l/m 0 min 0 min 0 W/m 16,1 km/h (3 Bft) 97,87 %
15.02.2019 23:48 8,1 C 7,2 C 6,1 C 68 % 1024,9 hPa 0,0 l/m 0 min 0 min 0 W/m 16,1 km/h (3 Bft) 93,62 %
15.02.2019 23:50 8,1 C 7,2 C 6,7 C 68 % 1024,9 hPa 0,0 l/m 0 min 0 min 0 W/m 22,5 km/h (4 Bft) 95,74 %
15.02.2019 23:52 8,0 C 7,2 C 6,1 C 68 % 1025,0 hPa 0,0 l/m 0 min 0 min 0 W/m 12,9 km/h (3 Bft) 97,87 %
15.02.2019 23:54 8,0 C 7,2 C 6,1 C 68 % 1025,0 hPa 0,0 l/m 0 min 0 min 0 W/m 19,3 km/h (3 Bft) 93,62 %
15.02.2019 23:56 7,9 C 6,7 C 6,1 C 68 % 1024,9 hPa 0,0 l/m 0 min 0 min 0 W/m 12,9 km/h (3 Bft) 97,83 %
15.02.2019 23:58 7,9 C 6,7 C 6,1 C 68 % 1024,8 hPa 0,0 l/m 0 min 0 min 0 W/m 12,9 km/h (3 Bft) 97,87 %
_ Min-Zeit 07:38 02:38 02:50 14:26 23:58 - - - - 05:22 16:40
Minimum _ 3,5 C 2,8 C 0,6 C 49 % 1024,8 hPa - - - - 0,0 km/h (0 Bft) 61,11 %
_ Max-Zeit 15:32 15:24 12:48 08:26 01:00 00:00 12:08 00:00 12:44 11:20 00:50
Maximum _ 16,6 C 21,7 C 20,6 C 75 % 1031,6 hPa 0,0 l/m 4 min 0 min 499 W/m 38,6 km/h
O-SO (5 Bft)
100,00 %
Durchschnitt _ 9,0 C 9,6 C 7,4 C 63 % 1028,6 hPa #0,0 l/m #6:54 h #0 min. 277 W/m 14,2 km/h (3 Bft) 95,92 %
© 2019 W. Hausmann